Time,TemperatureF,DewpointF,PressureIn,WindDirection,WindDirectionDegrees,WindSpeedMPH,WindSpeedGustMPH,Humidity,HourlyPrecipIn,Conditions,Clouds,dailyrainin,SolarRadiationWatts/m^2,SoftwareType,DateUTC
2013-02-25 00:00:00,40.1,23.0,30.09,North,355,3.0,8.0,50,0.00,,SKC,0.00,0.00,VWS V14.01,2013-02-25 05:00:00,
2013-02-25 00:05:00,39.9,23.3,30.09,NNW,347,5.0,8.0,51,0.00,,SKC,0.00,0.00,VWS V14.01,2013-02-25 05:05:00,
2013-02-25 00:10:00,39.8,23.6,30.09,North,355,6.0,9.0,52,0.00,,SKC,0.00,0.00,VWS V14.01,2013-02-25 05:10:00,
2013-02-25 00:15:00,39.6,23.4,30.09,NNW,340,7.0,10.0,52,0.00,,SKC,0.00,0.00,VWS V14.01,2013-02-25 05:15:00,
2013-02-25 00:20:00,39.6,23.4,30.09,NNW,337,10.0,10.0,52,0.00,,SKC,0.00,0.00,VWS V14.01,2013-02-25 05:20:00,
2013-02-25 00:25:00,39.6,23.4,30.09,NNW,346,7.0,11.0,52,0.00,,SKC,0.00,0.00,VWS V14.01,2013-02-25 05:25:00,
2013-02-25 00:26:00,39.6,23.4,30.09,NNW,348,5.0,11.0,52,0.00,,SKC,0.00,0.00,VWS V14.01,2013-02-25 05:26:00,
2013-02-25 00:30:00,39.6,23.9,30.09,North,360,4.0,11.0,53,0.00,,SKC,0.00,0.00,VWS V14.01,2013-02-25 05:30:00,
2013-02-25 00:31:00,39.6,23.9,30.09,North,5,5.0,11.0,53,0.00,,SKC,0.00,0.00,VWS V14.01,2013-02-25 05:31:00,
2013-02-25 00:36:00,39.5,23.8,30.09,NNW,330,7.0,10.0,53,0.00,,SKC,0.00,0.00,VWS V14.01,2013-02-25 05:36:00,
2013-02-25 00:41:00,39.4,23.7,30.10,North,5,8.0,11.0,53,0.00,,SKC,0.00,0.00,VWS V14.01,2013-02-25 05:41:00,
2013-02-25 00:46:00,39.3,23.6,30.10,North,360,6.0,11.0,53,0.00,,SKC,0.00,0.00,VWS V14.01,2013-02-25 05:46:00,
2013-02-25 00:47:00,39.2,23.5,30.10,NNE,24,3.0,11.0,53,0.00,,SKC,0.00,0.00,VWS V14.01,2013-02-25 05:47:00,
2013-02-25 00:51:00,39.0,23.8,30.10,North,5,3.0,11.0,54,0.00,,SKC,0.00,0.00,VWS V14.01,2013-02-25 05:51:00,
2013-02-25 00:52:00,38.9,23.7,30.10,North,5,1.0,11.0,54,0.00,,SKC,0.00,0.00,VWS V14.01,2013-02-25 05:52:00,
2013-02-25 00:56:00,38.8,23.6,30.10,North,5,0.0,11.0,54,0.00,,SKC,0.00,0.00,VWS V14.01,2013-02-25 05:56:00,
2013-02-25 00:57:00,38.8,23.6,30.10,North,5,0.0,11.0,54,0.00,,SKC,0.00,0.00,VWS V14.01,2013-02-25 05:57:00,
2013-02-25 00:58:00,38.8,23.6,30.10,North,5,1.0,11.0,54,0.00,,SKC,0.00,0.00,VWS V14.01,2013-02-25 05:58:00,
2013-02-25 01:01:00,38.7,23.5,30.10,North,5,2.0,2.0,54,0.00,,SKC,0.00,0.00,VWS V14.01,2013-02-25 06:01:00,
2013-02-25 01:02:00,38.7,23.5,30.10,North,5,1.0,3.0,54,0.00,,SKC,0.00,0.00,VWS V14.01,2013-02-25 06:02:00,
2013-02-25 01:03:00,38.7,23.5,30.10,NW,315,2.0,3.0,54,0.00,,SKC,0.00,0.00,VWS V14.01,2013-02-25 06:03:00,
2013-02-25 01:06:00,38.6,23.4,30.10,NW,325,4.0,4.0,54,0.00,,SKC,0.00,0.00,VWS V14.01,2013-02-25 06:06:00,
2013-02-25 01:07:00,38.6,23.4,30.10,NNW,347,6.0,6.0,54,0.00,,SKC,0.00,0.00,VWS V14.01,2013-02-25 06:07:00,
2013-02-25 01:08:00,38.6,23.4,30.10,North,355,3.0,6.0,54,0.00,,SKC,0.00,0.00,VWS V14.01,2013-02-25 06:08:00,
2013-02-25 01:11:00,38.3,23.6,30.10,NNW,341,4.0,6.0,55,0.00,,SKC,0.00,0.00,VWS V14.01,2013-02-25 06:11:00,
2013-02-25 01:12:00,38.3,23.6,30.10,NNW,346,8.0,8.0,55,0.00,,SKC,0.00,0.00,VWS V14.01,2013-02-25 06:12:00,
2013-02-25 01:13:00,38.2,23.5,30.10,NNW,348,5.0,8.0,55,0.00,,SKC,0.00,0.00,VWS V14.01,2013-02-25 06:13:00,
2013-02-25 01:16:00,38.0,23.3,30.10,North,350,4.0,8.0,55,0.00,,SKC,0.00,0.00,VWS V14.01,2013-02-25 06:16:00,
2013-02-25 01:17:00,38.0,23.7,30.10,North,5,3.0,8.0,56,0.00,,SKC,0.00,0.00,VWS V14.01,2013-02-25 06:17:00,
2013-02-25 01:18:00,37.9,23.6,30.10,NNW,342,4.0,8.0,56,0.00,,SKC,0.00,0.00,VWS V14.01,2013-02-25 06:18:00,
2013-02-25 01:22:00,37.9,23.6,30.10,North,355,3.0,8.0,56,0.00,,SKC,0.00,0.00,VWS V14.01,2013-02-25 06:22:00,
2013-02-25 01:23:00,37.8,23.5,30.10,North,355,3.0,8.0,56,0.00,,SKC,0.00,0.00,VWS V14.01,2013-02-25 06:23:00,
2013-02-25 01:27:00,37.8,23.5,30.10,NNW,338,2.0,8.0,56,0.00,,SKC,0.00,0.00,VWS V14.01,2013-02-25 06:27:00,
2013-02-25 01:28:00,37.8,23.5,30.10,NNW,338,3.0,8.0,56,0.00,,SKC,0.00,0.00,VWS V14.01,2013-02-25 06:28:00,
2013-02-25 01:32:00,37.7,23.4,30.10,NNW,338,2.0,2.0,56,0.00,,SKC,0.00,0.00,VWS V14.01,2013-02-25 06:32:00,
2013-02-25 01:33:00,37.6,23.3,30.10,NNW,338,1.0,3.0,56,0.00,,SKC,0.00,0.00,VWS V14.01,2013-02-25 06:33:00,
2013-02-25 01:37:00,37.5,23.2,30.10,NNW,338,2.0,3.0,56,0.00,,SKC,0.00,0.00,VWS V14.01,2013-02-25 06:37:00,
2013-02-25 01:38:00,37.5,23.7,30.10,NNW,338,2.0,3.0,57,0.00,,SKC,0.00,0.00,VWS V14.01,2013-02-25 06:38:00,
2013-02-25 01:39:00,37.4,23.6,30.10,NNW,338,2.0,3.0,57,0.00,,SKC,0.00,0.00,VWS V14.01,2013-02-25 06:39:00,
2013-02-25 01:42:00,37.4,23.6,30.10,NNW,338,4.0,4.0,57,0.00,,SKC,0.00,0.00,VWS V14.01,2013-02-25 06:42:00,
2013-02-25 01:43:00,37.3,23.5,30.10,NNW,338,2.0,4.0,57,0.00,,SKC,0.00,0.00,VWS V14.01,2013-02-25 06:43:00,
2013-02-25 01:44:00,37.2,23.4,30.10,NNW,338,1.0,4.0,57,0.00,,SKC,0.00,0.00,VWS V14.01,2013-02-25 06:44:00,
2013-02-25 01:47:00,36.9,23.5,30.10,NNW,338,1.0,4.0,58,0.00,,SKC,0.00,0.00,VWS V14.01,2013-02-25 06:47:00,
2013-02-25 01:48:00,36.7,23.3,30.11,NNW,338,1.0,4.0,58,0.00,,SKC,0.00,0.00,VWS V14.01,2013-02-25 06:48:00,
2013-02-25 01:49:00,36.6,23.2,30.11,NNW,338,2.0,4.0,58,0.00,,SKC,0.00,0.00,VWS V14.01,2013-02-25 06:49:00,
2013-02-25 01:52:00,36.2,23.3,30.11,NNW,338,1.0,4.0,59,0.00,,SKC,0.00,0.00,VWS V14.01,2013-02-25 06:52:00,
2013-02-25 01:53:00,36.1,23.2,30.11,NNW,338,2.0,4.0,59,0.00,,SKC,0.00,0.00,VWS V14.01,2013-02-25 06:53:00,
2013-02-25 01:54:00,36.1,23.2,30.11,NNW,338,2.0,4.0,59,0.00,,SKC,0.00,0.00,VWS V14.01,2013-02-25 06:54:00,
2013-02-25 01:57:00,35.9,23.0,30.10,NNW,338,2.0,4.0,59,0.00,,SKC,0.00,0.00,VWS V14.01,2013-02-25 06:57:00,
2013-02-25 01:58:00,35.9,23.0,30.10,NNW,338,3.0,4.0,59,0.00,,SKC,0.00,0.00,VWS V14.01,2013-02-25 06:58:00,
2013-02-25 01:59:00,35.9,23.4,30.10,NNW,338,3.0,4.0,60,0.00,,SKC,0.00,0.00,VWS V14.01,2013-02-25 06:59:00,
2013-02-25 02:00:00,35.8,23.3,30.10,NNW,339,2.0,4.0,60,0.00,,SKC,0.00,0.00,VWS V14.01,2013-02-25 07:00:00,
2013-02-25 02:03:00,35.7,23.2,30.10,NNW,339,1.0,2.0,60,0.00,,SKC,0.00,0.00,VWS V14.01,2013-02-25 07:03:00,
2013-02-25 02:04:00,35.7,23.2,30.11,NNW,339,1.0,2.0,60,0.00,,SKC,0.00,0.00,VWS V14.01,2013-02-25 07:04:00,
2013-02-25 02:05:00,35.7,23.2,30.11,NNW,339,0.0,2.0,60,0.00,,SKC,0.00,0.00,VWS V14.01,2013-02-25 07:05:00,
2013-02-25 02:08:00,35.3,23.2,30.11,NNW,339,0.0,2.0,61,0.00,,SKC,0.00,0.00,VWS V14.01,2013-02-25 07:08:00,
2013-02-25 02:09:00,35.2,23.1,30.11,NNW,339,1.0,2.0,61,0.00,,SKC,0.00,0.00,VWS V14.01,2013-02-25 07:09:00,
2013-02-25 02:10:00,35.0,23.3,30.12,NNW,339,0.0,2.0,62,0.00,,SKC,0.00,0.00,VWS V14.01,2013-02-25 07:10:00,
2013-02-25 02:13:00,34.7,23.0,30.12,NNW,339,0.0,2.0,62,0.00,,SKC,0.00,0.00,VWS V14.01,2013-02-25 07:13:00,
2013-02-25 02:14:00,34.6,23.3,30.12,NNW,339,0.0,2.0,63,0.00,,SKC,0.00,0.00,VWS V14.01,2013-02-25 07:14:00,
2013-02-25 02:15:00,34.5,23.2,30.12,NNW,339,0.0,2.0,63,0.00,,SKC,0.00,0.00,VWS V14.01,2013-02-25 07:15:00,
2013-02-25 02:18:00,34.6,23.3,30.12,NNW,339,2.0,2.0,63,0.00,,SKC,0.00,0.00,VWS V14.01,2013-02-25 07:18:00,
2013-02-25 02:19:00,34.6,23.3,30.12,NNW,339,1.0,2.0,63,0.00,,SKC,0.00,0.00,VWS V14.01,2013-02-25 07:19:00,
2013-02-25 02:21:00,34.6,23.3,30.12,NNW,339,1.0,2.0,63,0.00,,SKC,0.00,0.00,VWS V14.01,2013-02-25 07:21:00,
2013-02-25 02:24:00,34.7,23.4,30.12,NNW,339,1.0,2.0,63,0.00,,SKC,0.00,0.00,VWS V14.01,2013-02-25 07:24:00,
2013-02-25 02:25:00,34.7,23.4,30.12,NNW,339,2.0,2.0,63,0.00,,SKC,0.00,0.00,VWS V14.01,2013-02-25 07:25:00,
2013-02-25 02:26:00,34.7,23.4,30.12,NNW,339,2.0,2.0,63,0.00,,SKC,0.00,0.00,VWS V14.01,2013-02-25 07:26:00,
2013-02-25 02:29:00,34.7,23.0,30.12,NNW,339,0.0,2.0,62,0.00,,SKC,0.00,0.00,VWS V14.01,2013-02-25 07:29:00,
2013-02-25 02:30:00,34.7,23.0,30.12,NNW,339,2.0,2.0,62,0.00,,SKC,0.00,0.00,VWS V14.01,2013-02-25 07:30:00,
2013-02-25 02:31:00,34.7,23.0,30.12,NNW,339,2.0,2.0,62,0.00,,SKC,0.00,0.00,VWS V14.01,2013-02-25 07:31:00,
2013-02-25 02:34:00,34.6,23.3,30.11,NNW,337,1.0,3.0,63,0.00,,SKC,0.00,0.00,VWS V14.01,2013-02-25 07:34:00,
2013-02-25 02:35:00,34.5,23.2,30.11,NNW,329,3.0,4.0,63,0.00,,SKC,0.00,0.00,VWS V14.01,2013-02-25 07:35:00,
2013-02-25 02:36:00,34.4,23.1,30.11,NW,320,3.0,4.0,63,0.00,,SKC,0.00,0.00,VWS V14.01,2013-02-25 07:36:00,
2013-02-25 02:39:00,34.3,23.0,30.12,NW,326,2.0,5.0,63,0.00,,SKC,0.00,0.00,VWS V14.01,2013-02-25 07:39:00,
2013-02-25 02:40:00,34.2,22.9,30.12,NW,326,1.0,5.0,63,0.00,,SKC,0.00,0.00,VWS V14.01,2013-02-25 07:40:00,
2013-02-25 02:41:00,34.1,23.2,30.12,NW,323,1.0,5.0,64,0.00,,SKC,0.00,0.00,VWS V14.01,2013-02-25 07:41:00,
2013-02-25 02:44:00,33.9,23.0,30.12,NW,323,3.0,5.0,64,0.00,,SKC,0.00,0.00,VWS V14.01,2013-02-25 07:44:00,
2013-02-25 02:45:00,33.9,23.0,30.12,NW,323,3.0,5.0,64,0.00,,SKC,0.00,0.00,VWS V14.01,2013-02-25 07:45:00,
2013-02-25 02:46:00,33.9,23.0,30.12,NW,323,3.0,5.0,64,0.00,,SKC,0.00,0.00,VWS V14.01,2013-02-25 07:46:00,
2013-02-25 02:49:00,33.9,23.0,30.12,NW,320,3.0,5.0,64,0.00,,SKC,0.00,0.00,VWS V14.01,2013-02-25 07:49:00,
2013-02-25 02:50:00,33.9,23.0,30.12,NW,314,3.0,5.0,64,0.00,,SKC,0.00,0.00,VWS V14.01,2013-02-25 07:50:00,
2013-02-25 02:51:00,33.9,23.0,30.12,NNW,328,3.0,5.0,64,0.00,,SKC,0.00,0.00,VWS V14.01,2013-02-25 07:51:00,
2013-02-25 02:55:00,33.8,22.9,30.12,NW,323,1.0,5.0,64,0.00,,SKC,0.00,0.00,VWS V14.01,2013-02-25 07:55:00,
2013-02-25 02:56:00,33.7,23.2,30.12,NW,321,2.0,5.0,65,0.00,,SKC,0.00,0.00,VWS V14.01,2013-02-25 07:56:00,
2013-02-25 03:00:00,33.5,23.0,30.12,NW,321,0.0,5.0,65,0.00,,SKC,0.00,0.00,VWS V14.01,2013-02-25 08:00:00,
2013-02-25 03:01:00,33.3,22.8,30.13,NW,321,0.0,0.0,65,0.00,,SKC,0.00,0.00,VWS V14.01,2013-02-25 08:01:00,
2013-02-25 03:05:00,33.1,23.0,30.12,NW,321,0.0,0.0,66,0.00,,SKC,0.00,0.00,VWS V14.01,2013-02-25 08:05:00,
2013-02-25 03:07:00,33.1,23.0,30.12,NNW,338,3.0,3.0,66,0.00,,SKC,0.00,0.00,VWS V14.01,2013-02-25 08:07:00,
2013-02-25 03:10:00,33.2,23.1,30.12,North,350,6.0,6.0,66,0.00,,SKC,0.00,0.00,VWS V14.01,2013-02-25 08:10:00,
2013-02-25 03:12:00,33.3,23.2,30.12,NNW,343,4.0,6.0,66,0.00,,SKC,0.00,0.00,VWS V14.01,2013-02-25 08:12:00,
2013-02-25 03:15:00,33.7,23.2,30.12,NNW,348,4.0,8.0,65,0.00,,SKC,0.00,0.00,VWS V14.01,2013-02-25 08:15:00,
2013-02-25 03:16:00,33.7,23.2,30.12,NNW,348,1.0,8.0,65,0.00,,SKC,0.00,0.00,VWS V14.01,2013-02-25 08:16:00,
2013-02-25 03:17:00,33.8,23.3,30.12,North,351,3.0,8.0,65,0.00,,SKC,0.00,0.00,VWS V14.01,2013-02-25 08:17:00,
2013-02-25 03:20:00,33.9,23.4,30.12,North,360,1.0,8.0,65,0.00,,SKC,0.00,0.00,VWS V14.01,2013-02-25 08:20:00,
2013-02-25 03:21:00,33.9,23.0,30.12,North,360,3.0,8.0,64,0.00,,SKC,0.00,0.00,VWS V14.01,2013-02-25 08:21:00,
2013-02-25 03:22:00,33.9,23.0,30.12,North,360,1.0,8.0,64,0.00,,SKC,0.00,0.00,VWS V14.01,2013-02-25 08:22:00,
2013-02-25 03:25:00,33.9,23.0,30.12,NW,326,1.0,8.0,64,0.00,,SKC,0.00,0.00,VWS V14.01,2013-02-25 08:25:00,
2013-02-25 03:26:00,33.9,23.0,30.12,NW,325,3.0,8.0,64,0.00,,SKC,0.00,0.00,VWS V14.01,2013-02-25 08:26:00,
2013-02-25 03:27:00,33.8,23.3,30.12,NNW,327,5.0,8.0,65,0.00,,SKC,0.00,0.00,VWS V14.01,2013-02-25 08:27:00,
2013-02-25 03:30:00,33.7,23.2,30.12,NNW,338,2.0,8.0,65,0.00,,SKC,0.00,0.00,VWS V14.01,2013-02-25 08:30:00,
2013-02-25 03:31:00,33.7,23.2,30.12,NNW,344,4.0,4.0,65,0.00,,SKC,0.00,0.00,VWS V14.01,2013-02-25 08:31:00,
2013-02-25 03:32:00,33.7,23.2,30.12,NNW,347,3.0,4.0,65,0.00,,SKC,0.00,0.00,VWS V14.01,2013-02-25 08:32:00,
2013-02-25 03:36:00,34.0,23.1,30.13,NNW,331,2.0,6.0,64,0.00,,SKC,0.00,0.00,VWS V14.01,2013-02-25 08:36:00,
2013-02-25 03:37:00,34.0,23.1,30.13,NNW,330,1.0,6.0,64,0.00,,SKC,0.00,0.00,VWS V14.01,2013-02-25 08:37:00,
2013-02-25 03:41:00,34.0,23.1,30.13,NW,321,3.0,6.0,64,0.00,,SKC,0.00,0.00,VWS V14.01,2013-02-25 08:41:00,
2013-02-25 03:42:00,34.0,23.1,30.13,WNW,287,1.0,6.0,64,0.00,,SKC,0.00,0.00,VWS V14.01,2013-02-25 08:42:00,
2013-02-25 03:46:00,34.0,23.1,30.13,NW,308,1.0,6.0,64,0.00,,SKC,0.00,0.00,VWS V14.01,2013-02-25 08:46:00,
2013-02-25 03:47:00,34.0,23.1,30.13,NW,310,3.0,6.0,64,0.00,,SKC,0.00,0.00,VWS V14.01,2013-02-25 08:47:00,
2013-02-25 03:51:00,34.0,23.1,30.13,NNW,329,2.0,6.0,64,0.00,,SKC,0.00,0.00,VWS V14.01,2013-02-25 08:51:00,
2013-02-25 03:53:00,34.0,23.1,30.13,NNW,329,3.0,6.0,64,0.00,,SKC,0.00,0.00,VWS V14.01,2013-02-25 08:53:00,
2013-02-25 03:56:00,34.1,23.2,30.12,NNW,329,2.0,6.0,64,0.00,,SKC,0.00,0.00,VWS V14.01,2013-02-25 08:56:00,
2013-02-25 03:57:00,34.1,23.2,30.12,NNW,329,4.0,6.0,64,0.00,,SKC,0.00,0.00,VWS V14.01,2013-02-25 08:57:00,
2013-02-25 03:58:00,34.1,23.2,30.12,NNW,329,2.0,6.0,64,0.00,,SKC,0.00,0.00,VWS V14.01,2013-02-25 08:58:00,
2013-02-25 04:01:00,34.1,23.2,30.12,NNW,329,2.0,2.0,64,0.00,,SKC,0.00,0.00,VWS V14.01,2013-02-25 09:01:00,
2013-02-25 04:02:00,34.1,23.2,30.12,NNW,329,0.0,2.0,64,0.00,,SKC,0.00,0.00,VWS V14.01,2013-02-25 09:02:00,
2013-02-25 04:03:00,34.0,23.1,30.12,NNW,329,0.0,2.0,64,0.00,,SKC,0.00,0.00,VWS V14.01,2013-02-25 09:03:00,
2013-02-25 04:06:00,33.9,23.0,30.12,NNW,329,0.0,2.0,64,0.00,,SKC,0.00,0.00,VWS V14.01,2013-02-25 09:06:00,
2013-02-25 04:07:00,33.9,23.0,30.12,NNW,329,0.0,2.0,64,0.00,,SKC,0.00,0.00,VWS V14.01,2013-02-25 09:07:00,
2013-02-25 04:08:00,33.8,22.9,30.12,NNW,329,0.0,2.0,64,0.00,,SKC,0.00,0.00,VWS V14.01,2013-02-25 09:08:00,
2013-02-25 04:12:00,33.7,22.8,30.12,NNW,329,1.0,2.0,64,0.00,,SKC,0.00,0.00,VWS V14.01,2013-02-25 09:12:00,
2013-02-25 04:13:00,33.6,22.7,30.12,NNW,329,1.0,2.0,64,0.00,,SKC,0.00,0.00,VWS V14.01,2013-02-25 09:13:00,
2013-02-25 04:17:00,33.5,23.0,30.12,NNW,329,0.0,2.0,65,0.00,,SKC,0.00,0.00,VWS V14.01,2013-02-25 09:17:00,
2013-02-25 04:18:00,33.5,23.0,30.12,NNW,329,0.0,2.0,65,0.00,,SKC,0.00,0.00,VWS V14.01,2013-02-25 09:18:00,
2013-02-25 04:22:00,33.1,22.6,30.13,NNW,329,1.0,2.0,65,0.00,,SKC,0.00,0.00,VWS V14.01,2013-02-25 09:22:00,
2013-02-25 04:23:00,32.8,22.7,30.13,NNW,329,2.0,2.0,66,0.00,,SKC,0.00,0.00,VWS V14.01,2013-02-25 09:23:00,
2013-02-25 04:24:00,32.5,22.4,30.13,SSE,156,5.0,5.0,66,0.00,,SKC,0.00,0.00,VWS V14.01,2013-02-25 09:24:00,
2013-02-25 04:27:00,31.7,22.4,30.14,SSE,152,3.0,5.0,68,0.00,,SKC,0.00,0.00,VWS V14.01,2013-02-25 09:27:00,
2013-02-25 04:28:00,31.6,22.6,30.14,SSE,152,2.0,5.0,69,0.00,,SKC,0.00,0.00,VWS V14.01,2013-02-25 09:28:00,
2013-02-25 04:29:00,31.6,22.6,30.14,SSE,152,1.0,5.0,69,0.00,,SKC,0.00,0.00,VWS V14.01,2013-02-25 09:29:00,
2013-02-25 04:32:00,31.6,22.6,30.14,SSE,152,0.0,0.0,69,0.00,,SKC,0.00,0.00,VWS V14.01,2013-02-25 09:32:00,
2013-02-25 04:34:00,31.6,22.6,30.14,SSE,152,1.0,1.0,69,0.00,,SKC,0.00,0.00,VWS V14.01,2013-02-25 09:34:00,
2013-02-25 04:37:00,31.7,22.7,30.14,SSE,152,0.0,1.0,69,0.00,,SKC,0.00,0.00,VWS V14.01,2013-02-25 09:37:00,
2013-02-25 04:39:00,31.8,22.5,30.14,SSE,152,0.0,1.0,68,0.00,,SKC,0.00,0.00,VWS V14.01,2013-02-25 09:39:00,
2013-02-25 04:42:00,31.8,22.5,30.13,SSE,152,2.0,2.0,68,0.00,,SKC,0.00,0.00,VWS V14.01,2013-02-25 09:42:00,
2013-02-25 04:44:00,31.8,22.5,30.12,East,98,2.0,4.0,68,0.00,,SKC,0.00,0.00,VWS V14.01,2013-02-25 09:44:00,
2013-02-25 04:47:00,32.0,22.6,30.13,East,98,0.0,4.0,68,0.00,,SKC,0.00,0.00,VWS V14.01,2013-02-25 09:47:00,
2013-02-25 04:48:00,32.0,22.6,30.13,East,98,2.0,4.0,68,0.00,,SKC,0.00,0.00,VWS V14.01,2013-02-25 09:48:00,
2013-02-25 04:49:00,32.0,22.6,30.13,East,98,0.0,4.0,68,0.00,,SKC,0.00,0.00,VWS V14.01,2013-02-25 09:49:00,
2013-02-25 04:52:00,32.0,22.6,30.13,East,98,1.0,4.0,68,0.00,,SKC,0.00,0.00,VWS V14.01,2013-02-25 09:52:00,
2013-02-25 04:53:00,32.0,22.6,30.13,East,98,1.0,4.0,68,0.00,,SKC,0.00,0.00,VWS V14.01,2013-02-25 09:53:00,
2013-02-25 04:54:00,32.0,22.6,30.13,East,98,0.0,4.0,68,0.00,,SKC,0.00,0.00,VWS V14.01,2013-02-25 09:54:00,
2013-02-25 04:57:00,32.0,22.6,30.14,East,98,1.0,4.0,68,0.00,,SKC,0.00,0.00,VWS V14.01,2013-02-25 09:57:00,
2013-02-25 04:58:00,32.1,22.8,30.14,East,98,0.0,4.0,68,0.00,,SKC,0.00,0.00,VWS V14.01,2013-02-25 09:58:00,
2013-02-25 04:59:00,32.1,22.8,30.13,East,98,1.0,4.0,68,0.00,,SKC,0.00,0.00,VWS V14.01,2013-02-25 09:59:00,
2013-02-25 05:03:00,32.1,22.8,30.13,East,98,0.0,2.0,68,0.00,,SKC,0.00,0.00,VWS V14.01,2013-02-25 10:03:00,
2013-02-25 05:04:00,32.1,22.8,30.13,East,98,0.0,2.0,68,0.00,,SKC,0.00,0.00,VWS V14.01,2013-02-25 10:04:00,
2013-02-25 05:08:00,31.9,22.5,30.13,East,98,0.0,2.0,68,0.00,,SKC,0.00,0.00,VWS V14.01,2013-02-25 10:08:00,
2013-02-25 05:09:00,31.7,22.4,30.13,East,98,0.0,2.0,68,0.00,,SKC,0.00,0.00,VWS V14.01,2013-02-25 10:09:00,
2013-02-25 05:13:00,31.4,22.4,30.14,East,98,1.0,2.0,69,0.00,,SKC,0.00,0.00,VWS V14.01,2013-02-25 10:13:00,
2013-02-25 05:14:00,31.4,22.4,30.14,East,98,0.0,2.0,69,0.00,,SKC,0.00,0.00,VWS V14.01,2013-02-25 10:14:00,
2013-02-25 05:18:00,30.3,22.0,30.14,South,191,5.0,5.0,71,0.00,,SKC,0.00,0.00,VWS V14.01,2013-02-25 10:18:00,
2013-02-25 05:19:00,30.0,21.8,30.15,South,191,4.0,5.0,71,0.00,,SKC,0.00,0.00,VWS V14.01,2013-02-25 10:19:00,
2013-02-25 05:20:00,29.8,21.9,30.15,South,191,3.0,5.0,72,0.00,,SKC,0.00,0.00,VWS V14.01,2013-02-25 10:20:00,
2013-02-25 05:23:00,30.1,22.8,30.15,SSW,212,3.0,7.0,74,0.00,,SKC,0.00,0.00,VWS V14.01,2013-02-25 10:23:00,
2013-02-25 05:24:00,30.2,22.9,30.15,SSW,207,3.0,7.0,74,0.00,,SKC,0.00,0.00,VWS V14.01,2013-02-25 10:24:00,
2013-02-25 05:25:00,30.3,23.0,30.15,SSW,207,1.0,7.0,74,0.00,,SKC,0.00,0.00,VWS V14.01,2013-02-25 10:25:00,
2013-02-25 05:28:00,30.5,22.9,30.14,SSE,164,0.0,7.0,73,0.00,,SKC,0.00,0.00,VWS V14.01,2013-02-25 10:28:00,
2013-02-25 05:29:00,30.5,22.9,30.15,SSE,164,0.0,7.0,73,0.00,,SKC,0.00,0.00,VWS V14.01,2013-02-25 10:29:00,
2013-02-25 05:30:00,30.5,22.9,30.15,SSE,164,1.0,7.0,73,0.00,,SKC,0.00,0.00,VWS V14.01,2013-02-25 10:30:00,
2013-02-25 05:33:00,30.5,22.9,30.14,SSE,164,0.0,2.0,73,0.00,,SKC,0.00,0.00,VWS V14.01,2013-02-25 10:33:00,
2013-02-25 05:35:00,30.5,22.9,30.14,SSE,164,0.0,2.0,73,0.00,,SKC,0.00,0.00,VWS V14.01,2013-02-25 10:35:00,
2013-02-25 05:39:00,30.5,22.9,30.15,SSE,164,0.0,2.0,73,0.00,,SKC,0.00,0.00,VWS V14.01,2013-02-25 10:39:00,
2013-02-25 05:40:00,30.5,22.6,30.15,SSE,164,1.0,2.0,72,0.00,,SKC,0.00,0.00,VWS V14.01,2013-02-25 10:40:00,
2013-02-25 05:44:00,30.4,22.8,30.15,WNW,284,2.0,3.0,73,0.00,,SKC,0.00,0.00,VWS V14.01,2013-02-25 10:44:00,
2013-02-25 05:45:00,30.4,22.8,30.15,WNW,284,0.0,3.0,73,0.00,,SKC,0.00,0.00,VWS V14.01,2013-02-25 10:45:00,
2013-02-25 05:49:00,30.2,22.6,30.15,WNW,284,0.0,3.0,73,0.00,,SKC,0.00,0.00,VWS V14.01,2013-02-25 10:49:00,
2013-02-25 05:50:00,30.1,22.5,30.15,WNW,284,0.0,3.0,73,0.00,,SKC,0.00,0.00,VWS V14.01,2013-02-25 10:50:00,
2013-02-25 05:54:00,30.1,22.5,30.15,WNW,284,0.0,3.0,73,0.00,,SKC,0.00,0.00,VWS V14.01,2013-02-25 10:54:00,
2013-02-25 05:55:00,30.1,22.5,30.15,WNW,284,1.0,3.0,73,0.00,,SKC,0.00,0.00,VWS V14.01,2013-02-25 10:55:00,
2013-02-25 05:59:00,30.0,22.4,30.16,WNW,284,1.0,3.0,73,0.00,,SKC,0.00,0.00,VWS V14.01,2013-02-25 10:59:00,
2013-02-25 06:00:00,30.0,22.7,30.16,WNW,284,0.0,3.0,74,0.00,,SKC,0.00,0.00,VWS V14.01,2013-02-25 11:00:00,
2013-02-25 06:01:00,30.0,22.7,30.16,WNW,284,0.0,3.0,74,0.00,,SKC,0.00,0.00,VWS V14.01,2013-02-25 11:01:00,
2013-02-25 06:04:00,29.9,22.6,30.16,WNW,284,0.0,1.0,74,0.00,,SKC,0.00,0.00,VWS V14.01,2013-02-25 11:04:00,
2013-02-25 06:05:00,29.9,22.6,30.16,WNW,284,0.0,1.0,74,0.00,,SKC,0.00,0.00,VWS V14.01,2013-02-25 11:05:00,
2013-02-25 06:06:00,29.9,22.6,30.16,WNW,284,0.0,1.0,74,0.00,,SKC,0.00,0.00,VWS V14.01,2013-02-25 11:06:00,
2013-02-25 06:10:00,29.9,22.6,30.16,WNW,284,0.0,1.0,74,0.00,,SKC,0.00,0.00,VWS V14.01,2013-02-25 11:10:00,
2013-02-25 06:11:00,29.9,22.6,30.16,WNW,284,0.0,1.0,74,0.00,,SKC,0.00,0.00,VWS V14.01,2013-02-25 11:11:00,
2013-02-25 06:15:00,29.9,22.6,30.16,WNW,286,0.0,3.0,74,0.00,,SKC,0.00,0.00,VWS V14.01,2013-02-25 11:15:00,
2013-02-25 06:16:00,29.9,22.6,30.16,WNW,286,0.0,3.0,74,0.00,,SKC,0.00,0.00,VWS V14.01,2013-02-25 11:16:00,
2013-02-25 06:17:00,29.9,22.6,30.16,WNW,286,0.0,3.0,74,0.00,,SKC,0.00,0.00,VWS V14.01,2013-02-25 11:17:00,
2013-02-25 06:20:00,29.8,22.5,30.17,WNW,286,0.0,3.0,74,0.00,,SKC,0.00,0.00,VWS V14.01,2013-02-25 11:20:00,
2013-02-25 06:21:00,29.8,22.5,30.17,WNW,286,0.0,3.0,74,0.00,,SKC,0.00,0.00,VWS V14.01,2013-02-25 11:21:00,
2013-02-25 06:22:00,29.7,22.4,30.17,WNW,286,0.0,3.0,74,0.00,,SKC,0.00,0.00,VWS V14.01,2013-02-25 11:22:00,
2013-02-25 06:25:00,29.7,22.4,30.17,WNW,286,0.0,3.0,74,0.00,,SKC,0.00,0.00,VWS V14.01,2013-02-25 11:25:00,
2013-02-25 06:26:00,29.7,22.4,30.17,WNW,286,0.0,3.0,74,0.00,,SKC,0.00,0.00,VWS V14.01,2013-02-25 11:26:00,
2013-02-25 06:27:00,29.6,22.4,30.17,WNW,286,0.0,3.0,74,0.00,,SKC,0.00,0.00,VWS V14.01,2013-02-25 11:27:00,
2013-02-25 06:30:00,29.6,22.7,30.17,WNW,286,1.0,3.0,75,0.00,,SKC,0.00,0.00,VWS V14.01,2013-02-25 11:30:00,
2013-02-25 06:31:00,29.6,22.7,30.17,WNW,286,1.0,2.0,75,0.00,,SKC,0.00,0.00,VWS V14.01,2013-02-25 11:31:00,
2013-02-25 06:32:00,29.6,22.7,30.16,WNW,286,3.0,3.0,75,0.00,,SKC,0.00,0.00,VWS V14.01,2013-02-25 11:32:00,
2013-02-25 06:35:00,29.4,22.5,30.17,WNW,286,2.0,3.0,75,0.00,,SKC,0.00,0.00,VWS V14.01,2013-02-25 11:35:00,
2013-02-25 06:36:00,29.4,22.5,30.17,WNW,286,2.0,3.0,75,0.00,,SKC,0.00,0.00,VWS V14.01,2013-02-25 11:36:00,
2013-02-25 06:37:00,29.4,22.5,30.17,WNW,288,1.0,3.0,75,0.00,,SKC,0.00,0.00,VWS V14.01,2013-02-25 11:37:00,
2013-02-25 06:40:00,29.3,22.4,30.17,WNW,288,1.0,3.0,75,0.00,,SKC,0.00,0.00,VWS V14.01,2013-02-25 11:40:00,
2013-02-25 06:41:00,29.3,22.4,30.17,WNW,288,1.0,3.0,75,0.00,,SKC,0.00,0.00,VWS V14.01,2013-02-25 11:41:00,
2013-02-25 06:42:00,29.3,22.4,30.17,WNW,288,1.0,3.0,75,0.00,,SKC,0.00,0.00,VWS V14.01,2013-02-25 11:42:00,
2013-02-25 06:45:00,29.2,22.3,30.16,WNW,288,0.0,3.0,75,0.00,,SKC,0.00,0.00,VWS V14.01,2013-02-25 11:45:00,
2013-02-25 06:46:00,29.2,22.3,30.16,WNW,288,0.0,3.0,75,0.00,,SKC,0.00,0.00,VWS V14.01,2013-02-25 11:46:00,
2013-02-25 06:47:00,29.2,22.3,30.16,WNW,288,0.0,3.0,75,0.00,,SKC,0.00,0.00,VWS V14.01,2013-02-25 11:47:00,
2013-02-25 06:51:00,29.1,22.5,30.16,WNW,288,0.0,3.0,76,0.00,,SKC,0.00,0.00,VWS V14.01,2013-02-25 11:51:00,
2013-02-25 06:52:00,29.0,22.4,30.16,WNW,288,0.0,3.0,76,0.00,,SKC,0.00,0.00,VWS V14.01,2013-02-25 11:52:00,
2013-02-25 06:56:00,28.8,22.2,30.16,WNW,288,0.0,3.0,76,0.00,,SKC,0.00,0.00,VWS V14.01,2013-02-25 11:56:00,
2013-02-25 06:57:00,28.8,22.2,30.16,WNW,288,1.0,3.0,76,0.00,,SKC,0.00,0.00,VWS V14.01,2013-02-25 11:57:00,
2013-02-25 06:58:00,28.8,22.2,30.16,WNW,288,1.0,3.0,76,0.00,,SKC,0.00,0.00,VWS V14.01,2013-02-25 11:58:00,
2013-02-25 07:01:00,28.7,22.4,30.16,WNW,288,1.0,3.0,77,0.00,,SKC,0.00,0.00,VWS V14.01,2013-02-25 12:01:00,
2013-02-25 07:02:00,28.7,22.4,30.17,WNW,288,1.0,2.0,77,0.00,,SKC,0.00,5.00,VWS V14.01,2013-02-25 12:02:00,
2013-02-25 07:03:00,28.7,22.4,30.17,WNW,288,1.0,2.0,77,0.00,,SKC,0.00,5.00,VWS V14.01,2013-02-25 12:03:00,
2013-02-25 07:06:00,28.7,22.4,30.17,WNW,288,0.0,2.0,77,0.00,,SKC,0.00,7.00,VWS V14.01,2013-02-25 12:06:00,
2013-02-25 07:07:00,28.7,22.4,30.17,WNW,288,0.0,2.0,77,0.00,,SKC,0.00,9.00,VWS V14.01,2013-02-25 12:07:00,
2013-02-25 07:08:00,28.7,22.4,30.17,WNW,288,0.0,2.0,77,0.00,,SKC,0.00,9.00,VWS V14.01,2013-02-25 12:08:00,
2013-02-25 07:11:00,28.9,22.6,30.17,WNW,288,0.0,2.0,77,0.00,,SKC,0.00,12.00,VWS V14.01,2013-02-25 12:11:00,
2013-02-25 07:12:00,29.0,22.7,30.17,WNW,288,0.0,2.0,77,0.00,,SKC,0.00,14.00,VWS V14.01,2013-02-25 12:12:00,
2013-02-25 07:13:00,29.0,22.7,30.17,WNW,288,2.0,3.0,77,0.00,,SKC,0.00,14.00,VWS V14.01,2013-02-25 12:13:00,
2013-02-25 07:16:00,29.1,22.8,30.17,WNW,288,2.0,3.0,77,0.00,,SKC,0.00,18.00,VWS V14.01,2013-02-25 12:16:00,
2013-02-25 07:17:00,29.2,22.9,30.17,WNW,288,3.0,3.0,77,0.00,,SKC,0.00,19.00,VWS V14.01,2013-02-25 12:17:00,
2013-02-25 07:18:00,29.2,22.9,30.17,WNW,288,2.0,3.0,77,0.00,,SKC,0.00,19.00,VWS V14.01,2013-02-25 12:18:00,
2013-02-25 07:21:00,29.3,22.7,30.17,WNW,288,1.0,3.0,76,0.00,,SKC,0.00,23.00,VWS V14.01,2013-02-25 12:21:00,
2013-02-25 07:22:00,29.3,22.7,30.18,WNW,288,1.0,3.0,76,0.00,,SKC,0.00,25.00,VWS V14.01,2013-02-25 12:22:00,
2013-02-25 07:23:00,29.3,22.7,30.18,WNW,288,0.0,3.0,76,0.00,,SKC,0.00,26.00,VWS V14.01,2013-02-25 12:23:00,
2013-02-25 07:27:00,29.1,22.8,30.18,WNW,288,0.0,3.0,77,0.00,,SKC,0.00,28.00,VWS V14.01,2013-02-25 12:27:00,
2013-02-25 07:28:00,29.1,22.8,30.18,WNW,288,0.0,3.0,77,0.00,,SKC,0.00,30.00,VWS V14.01,2013-02-25 12:28:00,
2013-02-25 07:29:00,29.2,22.9,30.18,WNW,288,0.0,3.0,77,0.00,,SKC,0.00,32.00,VWS V14.01,2013-02-25 12:29:00,
2013-02-25 07:32:00,29.4,22.8,30.18,WNW,288,0.0,0.0,76,0.00,,SKC,0.00,35.00,VWS V14.01,2013-02-25 12:32:00,
2013-02-25 07:33:00,29.4,22.8,30.18,WNW,288,1.0,1.0,76,0.00,,SKC,0.00,39.00,VWS V14.01,2013-02-25 12:33:00,
2013-02-25 07:34:00,29.4,22.8,30.18,SE,130,3.0,3.0,76,0.00,,SKC,0.00,40.00,VWS V14.01,2013-02-25 12:34:00,
2013-02-25 07:37:00,29.2,22.9,30.18,SE,126,3.0,5.0,77,0.00,,SKC,0.00,42.00,VWS V14.01,2013-02-25 12:37:00,
2013-02-25 07:38:00,29.1,22.8,30.18,SE,126,3.0,5.0,77,0.00,,SKC,0.00,44.00,VWS V14.01,2013-02-25 12:38:00,
2013-02-25 07:39:00,29.0,22.7,30.18,SE,126,2.0,5.0,77,0.00,,SKC,0.00,46.00,VWS V14.01,2013-02-25 12:39:00,
2013-02-25 07:43:00,28.8,22.5,30.18,SE,126,0.0,5.0,77,0.00,,SKC,0.00,51.00,VWS V14.01,2013-02-25 12:43:00,
2013-02-25 07:45:00,28.7,22.7,30.19,SE,126,0.0,5.0,78,0.00,,SKC,0.00,54.00,VWS V14.01,2013-02-25 12:45:00,
2013-02-25 07:48:00,28.6,22.9,30.19,SE,126,0.0,5.0,79,0.00,,SKC,0.00,60.00,VWS V14.01,2013-02-25 12:48:00,
2013-02-25 07:50:00,28.5,22.8,30.20,SE,126,1.0,5.0,79,0.00,,SKC,0.00,67.00,VWS V14.01,2013-02-25 12:50:00,
2013-02-25 07:53:00,28.5,22.8,30.20,SE,126,0.0,5.0,79,0.00,,SKC,0.00,74.00,VWS V14.01,2013-02-25 12:53:00,
2013-02-25 07:54:00,28.5,22.8,30.20,SE,126,0.0,5.0,79,0.00,,SKC,0.00,77.00,VWS V14.01,2013-02-25 12:54:00,
2013-02-25 07:56:00,28.7,23.3,30.20,SE,126,1.0,5.0,80,0.00,,SKC,0.00,79.00,VWS V14.01,2013-02-25 12:56:00,
2013-02-25 07:59:00,29.3,23.9,30.20,SSE,157,2.0,5.0,80,0.00,,SKC,0.00,83.00,VWS V14.01,2013-02-25 12:59:00,
2013-02-25 08:01:00,29.7,24.0,30.21,SSE,157,0.0,0.0,79,0.00,,SKC,0.00,88.00,VWS V14.01,2013-02-25 13:01:00,
2013-02-25 08:04:00,29.7,23.7,30.21,SSE,157,0.0,0.0,78,0.00,,SKC,0.00,95.00,VWS V14.01,2013-02-25 13:04:00,
2013-02-25 08:06:00,29.7,23.7,30.21,SSE,157,0.0,1.0,78,0.00,,SKC,0.00,104.00,VWS V14.01,2013-02-25 13:06:00,
2013-02-25 08:09:00,29.7,23.7,30.22,SSE,157,2.0,2.0,78,0.00,,SKC,0.00,111.00,VWS V14.01,2013-02-25 13:09:00,
2013-02-25 08:11:00,29.7,24.0,30.22,SSE,157,0.0,2.0,79,0.00,,SKC,0.00,118.00,VWS V14.01,2013-02-25 13:11:00,
2013-02-25 08:14:00,29.9,24.5,30.22,SSE,157,0.0,2.0,80,0.00,,SKC,0.00,118.00,VWS V14.01,2013-02-25 13:14:00,
2013-02-25 08:15:00,29.9,24.5,30.22,SSE,157,0.0,2.0,80,0.00,,SKC,0.00,118.00,VWS V14.01,2013-02-25 13:15:00,
2013-02-25 08:16:00,29.9,24.5,30.22,SSE,157,0.0,2.0,80,0.00,,SKC,0.00,118.00,VWS V14.01,2013-02-25 13:16:00,
2013-02-25 08:20:00,29.9,24.5,30.22,SSE,157,0.0,2.0,80,0.00,,SKC,0.00,118.00,VWS V14.01,2013-02-25 13:20:00,
2013-02-25 08:22:00,29.9,24.5,30.21,SSE,157,0.0,2.0,80,0.00,,SKC,0.00,120.00,VWS V14.01,2013-02-25 13:22:00,
2013-02-25 08:25:00,30.1,24.7,30.21,SSE,157,1.0,2.0,80,0.00,,SKC,0.00,125.00,VWS V14.01,2013-02-25 13:25:00,
2013-02-25 08:27:00,30.2,24.8,30.22,SSE,157,0.0,2.0,80,0.00,,SKC,0.00,128.00,VWS V14.01,2013-02-25 13:27:00,
2013-02-25 08:30:00,30.4,25.0,30.22,SSE,157,0.0,2.0,80,0.00,,SKC,0.00,137.00,VWS V14.01,2013-02-25 13:30:00,
2013-02-25 08:32:00,30.5,25.1,30.22,SSE,157,0.0,0.0,80,0.00,,SKC,0.00,139.00,VWS V14.01,2013-02-25 13:32:00,
2013-02-25 08:36:00,30.8,25.1,30.22,SSE,157,1.0,1.0,79,0.00,,SKC,0.00,142.00,VWS V14.01,2013-02-25 13:36:00,
2013-02-25 08:37:00,30.8,25.1,30.22,SSE,157,1.0,1.0,79,0.00,,SKC,0.00,141.00,VWS V14.01,2013-02-25 13:37:00,
2013-02-25 08:38:00,30.9,24.9,30.23,SSE,157,0.0,2.0,78,0.00,,SKC,0.00,141.00,VWS V14.01,2013-02-25 13:38:00,
2013-02-25 08:41:00,31.1,25.0,30.23,SSE,157,1.0,2.0,78,0.00,,SKC,0.00,148.00,VWS V14.01,2013-02-25 13:41:00,
2013-02-25 08:42:00,31.1,25.0,30.23,SSE,157,0.0,2.0,78,0.00,,SKC,0.00,149.00,VWS V14.01,2013-02-25 13:42:00,
2013-02-25 08:43:00,31.2,25.1,30.23,SSE,157,0.0,2.0,78,0.00,,SKC,0.00,155.00,VWS V14.01,2013-02-25 13:43:00,
2013-02-25 08:46:00,31.3,24.9,30.22,SSE,157,2.0,2.0,77,0.00,,SKC,0.00,162.00,VWS V14.01,2013-02-25 13:46:00,
2013-02-25 08:47:00,31.3,24.9,30.22,SSE,157,1.0,2.0,77,0.00,,SKC,0.00,165.00,VWS V14.01,2013-02-25 13:47:00,
2013-02-25 08:48:00,31.4,25.0,30.23,SSE,157,2.0,2.0,77,0.00,,SKC,0.00,165.00,VWS V14.01,2013-02-25 13:48:00,
2013-02-25 08:51:00,31.4,25.0,30.22,SSE,157,0.0,2.0,77,0.00,,SKC,0.00,167.00,VWS V14.01,2013-02-25 13:51:00,
2013-02-25 08:52:00,31.5,25.1,30.22,SSE,157,1.0,2.0,77,0.00,,SKC,0.00,167.00,VWS V14.01,2013-02-25 13:52:00,
2013-02-25 08:53:00,31.6,25.2,30.23,SSE,157,1.0,3.0,77,0.00,,SKC,0.00,169.00,VWS V14.01,2013-02-25 13:53:00,
2013-02-25 08:56:00,31.7,24.7,30.23,SE,130,3.0,4.0,75,0.00,,SKC,0.00,172.00,VWS V14.01,2013-02-25 13:56:00,
2013-02-25 08:58:00,31.7,24.7,30.23,SE,131,3.0,4.0,75,0.00,,SKC,0.00,176.00,VWS V14.01,2013-02-25 13:58:00,
2013-02-25 08:59:00,31.7,24.4,30.22,SE,134,1.0,4.0,74,0.00,,SKC,0.00,181.00,VWS V14.01,2013-02-25 13:59:00,
2013-02-25 09:02:00,31.8,24.5,30.23,SE,134,1.0,2.0,74,0.00,,SKC,0.00,179.00,VWS V14.01,2013-02-25 14:02:00,
2013-02-25 09:03:00,31.8,24.8,30.23,SE,134,0.0,2.0,75,0.00,,SKC,0.00,183.00,VWS V14.01,2013-02-25 14:03:00,
2013-02-25 09:04:00,31.9,24.9,30.23,SE,134,1.0,2.0,75,0.00,,SKC,0.00,185.00,VWS V14.01,2013-02-25 14:04:00,
2013-02-25 09:07:00,32.1,25.1,30.23,SE,134,0.0,2.0,75,0.00,,SKC,0.00,185.00,VWS V14.01,2013-02-25 14:07:00,
2013-02-25 09:08:00,32.1,25.1,30.23,SE,134,0.0,2.0,75,0.00,,SKC,0.00,186.00,VWS V14.01,2013-02-25 14:08:00,
2013-02-25 09:09:00,32.2,25.2,30.22,SE,134,0.0,2.0,75,0.00,,SKC,0.00,188.00,VWS V14.01,2013-02-25 14:09:00,
2013-02-25 09:11:00,32.4,25.0,30.22,SE,134,0.0,2.0,74,0.00,,SKC,0.00,197.00,VWS V14.01,2013-02-25 14:11:00,
2013-02-25 09:14:00,32.7,25.0,30.23,SE,134,0.0,2.0,73,0.00,,SKC,0.00,213.00,VWS V14.01,2013-02-25 14:14:00,
2013-02-25 09:16:00,32.8,24.8,30.23,SE,129,0.0,3.0,72,0.00,,SKC,0.00,223.00,VWS V14.01,2013-02-25 14:16:00,
2013-02-25 09:19:00,32.9,24.5,30.23,SE,129,1.0,3.0,71,0.00,,SKC,0.00,237.00,VWS V14.01,2013-02-25 14:19:00,
2013-02-25 09:21:00,33.0,24.3,30.23,SE,129,1.0,3.0,70,0.00,,SKC,0.00,232.00,VWS V14.01,2013-02-25 14:21:00,
2013-02-25 09:24:00,33.0,24.0,30.23,SE,129,0.0,3.0,69,0.00,,SKC,0.00,232.00,VWS V14.01,2013-02-25 14:24:00,
2013-02-25 09:25:00,33.1,24.0,30.23,SE,129,0.0,3.0,69,0.00,,SKC,0.00,229.00,VWS V14.01,2013-02-25 14:25:00,
2013-02-25 09:26:00,33.2,24.1,30.23,SE,129,0.0,3.0,69,0.00,,SKC,0.00,234.00,VWS V14.01,2013-02-25 14:26:00,
2013-02-25 09:29:00,33.4,24.3,30.23,SE,129,2.0,3.0,69,0.00,,SKC,0.00,239.00,VWS V14.01,2013-02-25 14:29:00,
2013-02-25 09:30:00,33.4,24.3,30.23,SE,129,1.0,3.0,69,0.00,,SKC,0.00,243.00,VWS V14.01,2013-02-25 14:30:00,
2013-02-25 09:32:00,33.5,24.1,30.23,SE,129,0.0,1.0,68,0.00,,SKC,0.00,248.00,VWS V14.01,2013-02-25 14:32:00,
2013-02-25 09:34:00,33.6,24.2,30.23,SE,129,0.0,2.0,68,0.00,,SKC,0.00,257.00,VWS V14.01,2013-02-25 14:34:00,
2013-02-25 09:35:00,33.6,24.2,30.23,SE,129,0.0,2.0,68,0.00,,SKC,0.00,257.00,VWS V14.01,2013-02-25 14:35:00,
2013-02-25 09:37:00,33.8,24.7,30.23,SE,129,1.0,2.0,69,0.00,,SKC,0.00,264.00,VWS V14.01,2013-02-25 14:37:00,
2013-02-25 09:40:00,33.9,24.8,30.23,SE,129,2.0,4.0,69,0.00,,SKC,0.00,274.00,VWS V14.01,2013-02-25 14:40:00,
2013-02-25 09:41:00,33.9,24.5,30.23,SE,129,1.0,4.0,68,0.00,,SKC,0.00,276.00,VWS V14.01,2013-02-25 14:41:00,
2013-02-25 09:42:00,33.8,24.7,30.22,SE,132,1.0,4.0,69,0.00,,SKC,0.00,283.00,VWS V14.01,2013-02-25 14:42:00,
2013-02-25 09:45:00,34.1,25.0,30.22,SE,132,0.0,4.0,69,0.00,,SKC,0.00,290.00,VWS V14.01,2013-02-25 14:45:00,
2013-02-25 09:46:00,34.1,24.7,30.22,SE,130,1.0,4.0,68,0.00,,SKC,0.00,292.00,VWS V14.01,2013-02-25 14:46:00,
2013-02-25 09:47:00,34.2,24.4,30.22,SE,130,0.0,4.0,67,0.00,,SKC,0.00,299.00,VWS V14.01,2013-02-25 14:47:00,
2013-02-25 09:50:00,34.4,24.6,30.22,SE,130,0.0,4.0,67,0.00,,SKC,0.00,309.00,VWS V14.01,2013-02-25 14:50:00,
2013-02-25 09:51:00,34.5,24.7,30.22,SE,130,1.0,4.0,67,0.00,,SKC,0.00,313.00,VWS V14.01,2013-02-25 14:51:00,
2013-02-25 09:52:00,34.5,24.3,30.22,SE,130,2.0,4.0,66,0.00,,SKC,0.00,308.00,VWS V14.01,2013-02-25 14:52:00,
2013-02-25 09:55:00,34.4,24.2,30.22,SSE,148,2.0,4.0,66,0.00,,SKC,0.00,320.00,VWS V14.01,2013-02-25 14:55:00,
2013-02-25 09:56:00,34.3,24.5,30.22,SSE,148,2.0,4.0,67,0.00,,SKC,0.00,322.00,VWS V14.01,2013-02-25 14:56:00,
2013-02-25 09:57:00,34.3,24.1,30.22,SSE,152,1.0,4.0,66,0.00,,SKC,0.00,323.00,VWS V14.01,2013-02-25 14:57:00,
2013-02-25 10:00:00,34.2,24.4,30.22,SE,141,5.0,5.0,67,0.00,,SKC,0.00,323.00,VWS V14.01,2013-02-25 15:00:00,
2013-02-25 10:01:00,34.3,24.5,30.22,SSE,150,5.0,5.0,67,0.00,,SKC,0.00,334.00,VWS V14.01,2013-02-25 15:01:00,
2013-02-25 10:02:00,34.3,24.1,30.22,SSE,153,0.0,5.0,66,0.00,,SKC,0.00,343.00,VWS V14.01,2013-02-25 15:02:00,
2013-02-25 10:06:00,34.2,24.0,30.23,South,174,2.0,5.0,66,0.00,,SKC,0.00,343.00,VWS V14.01,2013-02-25 15:06:00,
2013-02-25 10:08:00,34.2,23.7,30.23,South,180,3.0,5.0,65,0.00,,SKC,0.00,332.00,VWS V14.01,2013-02-25 15:08:00,
2013-02-25 10:11:00,34.0,23.5,30.23,South,188,0.0,5.0,65,0.00,,SKC,0.00,334.00,VWS V14.01,2013-02-25 15:11:00,
2013-02-25 10:13:00,34.0,23.5,30.23,South,188,1.0,5.0,65,0.00,,SKC,0.00,341.00,VWS V14.01,2013-02-25 15:13:00,
2013-02-25 10:16:00,34.3,23.8,30.23,South,188,0.0,5.0,65,0.00,,SKC,0.00,339.00,VWS V14.01,2013-02-25 15:16:00,
2013-02-25 10:18:00,34.5,24.0,30.23,South,188,1.0,5.0,65,0.00,,SKC,0.00,322.00,VWS V14.01,2013-02-25 15:18:00,
2013-02-25 10:21:00,34.8,24.2,30.23,ESE,117,1.0,5.0,65,0.00,,SKC,0.00,336.00,VWS V14.01,2013-02-25 15:21:00,
2013-02-25 10:22:00,34.9,24.3,30.23,ESE,117,0.0,5.0,65,0.00,,SKC,0.00,338.00,VWS V14.01,2013-02-25 15:22:00,
2013-02-25 10:23:00,35.0,24.1,30.23,ESE,117,0.0,5.0,64,0.00,,SKC,0.00,338.00,VWS V14.01,2013-02-25 15:23:00,
2013-02-25 10:26:00,35.3,24.4,30.23,SE,128,4.0,5.0,64,0.00,,SKC,0.00,325.00,VWS V14.01,2013-02-25 15:26:00,
2013-02-25 10:27:00,35.3,24.4,30.23,SE,128,4.0,5.0,64,0.00,,SKC,0.00,327.00,VWS V14.01,2013-02-25 15:27:00,
2013-02-25 10:28:00,35.3,24.4,30.23,SE,128,3.0,5.0,64,0.00,,SKC,0.00,322.00,VWS V14.01,2013-02-25 15:28:00,
2013-02-25 10:31:00,35.5,24.2,30.23,SE,128,3.0,3.0,63,0.00,,SKC,0.00,322.00,VWS V14.01,2013-02-25 15:31:00,
2013-02-25 10:32:00,35.5,24.2,30.23,SE,128,2.0,3.0,63,0.00,,SKC,0.00,325.00,VWS V14.01,2013-02-25 15:32:00,
2013-02-25 10:33:00,35.5,24.2,30.23,SE,128,1.0,3.0,63,0.00,,SKC,0.00,330.00,VWS V14.01,2013-02-25 15:33:00,
2013-02-25 10:36:00,35.7,24.0,30.24,SE,128,0.0,3.0,62,0.00,,SKC,0.00,362.00,VWS V14.01,2013-02-25 15:36:00,
2013-02-25 10:37:00,35.7,24.0,30.24,SE,128,0.0,3.0,62,0.00,,SKC,0.00,350.00,VWS V14.01,2013-02-25 15:37:00,
2013-02-25 10:38:00,35.7,24.4,30.24,SE,128,2.0,3.0,63,0.00,,SKC,0.00,343.00,VWS V14.01,2013-02-25 15:38:00,
2013-02-25 10:41:00,35.8,24.1,30.24,SSW,193,0.0,3.0,62,0.00,,SKC,0.00,345.00,VWS V14.01,2013-02-25 15:41:00,
2013-02-25 10:42:00,35.7,24.0,30.24,SSW,193,1.0,3.0,62,0.00,,SKC,0.00,338.00,VWS V14.01,2013-02-25 15:42:00,
2013-02-25 10:43:00,35.7,24.4,30.24,SE,135,3.0,3.0,63,0.00,,SKC,0.00,339.00,VWS V14.01,2013-02-25 15:43:00,
2013-02-25 10:47:00,35.8,24.1,30.24,ESE,122,4.0,6.0,62,0.00,,SKC,0.00,364.00,VWS V14.01,2013-02-25 15:47:00,
2013-02-25 10:48:00,35.8,24.1,30.24,East,93,0.0,6.0,62,0.00,,SKC,0.00,364.00,VWS V14.01,2013-02-25 15:48:00,
2013-02-25 10:52:00,36.1,24.4,30.24,SE,144,2.0,6.0,62,0.00,,SKC,0.00,320.00,VWS V14.01,2013-02-25 15:52:00,
2013-02-25 10:53:00,36.2,24.1,30.24,SE,144,1.0,6.0,61,0.00,,SKC,0.00,323.00,VWS V14.01,2013-02-25 15:53:00,
2013-02-25 10:57:00,36.2,24.1,30.24,ESE,117,3.0,6.0,61,0.00,,SKC,0.00,316.00,VWS V14.01,2013-02-25 15:57:00,
2013-02-25 10:58:00,36.3,24.1,30.24,SE,134,2.0,6.0,61,0.00,,SKC,0.00,323.00,VWS V14.01,2013-02-25 15:58:00,
2013-02-25 10:59:00,36.3,24.1,30.24,SE,134,1.0,6.0,61,0.00,,SKC,0.00,325.00,VWS V14.01,2013-02-25 15:59:00,
2013-02-25 11:02:00,36.1,24.0,30.23,SSE,154,0.0,1.0,61,0.00,,SKC,0.00,332.00,VWS V14.01,2013-02-25 16:02:00,
2013-02-25 11:03:00,36.1,24.0,30.23,SSE,154,0.0,1.0,61,0.00,,SKC,0.00,329.00,VWS V14.01,2013-02-25 16:03:00,
2013-02-25 11:04:00,36.1,24.0,30.23,SE,128,4.0,4.0,61,0.00,,SKC,0.00,323.00,VWS V14.01,2013-02-25 16:04:00,
2013-02-25 11:07:00,36.4,24.2,30.22,ENE,73,0.0,4.0,61,0.00,,SKC,0.00,311.00,VWS V14.01,2013-02-25 16:07:00,
2013-02-25 11:08:00,36.5,24.3,30.23,ESE,111,3.0,4.0,61,0.00,,SKC,0.00,311.00,VWS V14.01,2013-02-25 16:08:00,
2013-02-25 11:09:00,36.6,24.0,30.23,East,100,3.0,4.0,60,0.00,,SKC,0.00,311.00,VWS V14.01,2013-02-25 16:09:00,
2013-02-25 11:12:00,36.6,23.6,30.23,East,84,2.0,6.0,59,0.00,,SKC,0.00,318.00,VWS V14.01,2013-02-25 16:12:00,
2013-02-25 11:13:00,36.6,23.6,30.23,ENE,65,0.0,6.0,59,0.00,,SKC,0.00,329.00,VWS V14.01,2013-02-25 16:13:00,
2013-02-25 11:14:00,36.6,23.6,30.23,ENE,65,0.0,6.0,59,0.00,,SKC,0.00,330.00,VWS V14.01,2013-02-25 16:14:00,
2013-02-25 11:17:00,37.0,24.0,30.23,SE,138,4.0,6.0,59,0.00,,SKC,0.00,336.00,VWS V14.01,2013-02-25 16:17:00,
2013-02-25 11:18:00,37.0,23.6,30.23,SE,125,3.0,6.0,58,0.00,,SKC,0.00,336.00,VWS V14.01,2013-02-25 16:18:00,
2013-02-25 11:19:00,37.0,23.6,30.23,ESE,117,2.0,6.0,58,0.00,,SKC,0.00,336.00,VWS V14.01,2013-02-25 16:19:00,
2013-02-25 11:22:00,36.8,23.8,30.23,South,174,0.0,6.0,59,0.00,,SKC,0.00,357.00,VWS V14.01,2013-02-25 16:22:00,
2013-02-25 11:23:00,36.8,23.8,30.23,South,174,0.0,6.0,59,0.00,,SKC,0.00,359.00,VWS V14.01,2013-02-25 16:23:00,
2013-02-25 11:24:00,36.8,23.8,30.23,South,174,0.0,6.0,59,0.00,,SKC,0.00,360.00,VWS V14.01,2013-02-25 16:24:00,
2013-02-25 11:27:00,37.4,24.0,30.23,NE,46,1.0,6.0,58,0.00,,SKC,0.00,346.00,VWS V14.01,2013-02-25 16:27:00,
2013-02-25 11:28:00,37.5,24.1,30.23,NE,46,1.0,6.0,58,0.00,,SKC,0.00,341.00,VWS V14.01,2013-02-25 16:28:00,
2013-02-25 11:29:00,37.6,24.2,30.23,SE,138,3.0,6.0,58,0.00,,SKC,0.00,341.00,VWS V14.01,2013-02-25 16:29:00,
2013-02-25 11:33:00,37.5,24.1,30.23,ESE,119,4.0,8.0,58,0.00,,SKC,0.00,345.00,VWS V14.01,2013-02-25 16:33:00,
2013-02-25 11:34:00,37.5,23.7,30.23,ESE,105,3.0,8.0,57,0.00,,SKC,0.00,350.00,VWS V14.01,2013-02-25 16:34:00,
2013-02-25 11:35:00,37.4,23.6,30.23,ESE,122,5.0,8.0,57,0.00,,SKC,0.00,353.00,VWS V14.01,2013-02-25 16:35:00,
2013-02-25 11:38:00,37.3,23.9,30.23,SE,142,2.0,8.0,58,0.00,,SKC,0.00,346.00,VWS V14.01,2013-02-25 16:38:00,
2013-02-25 11:39:00,37.2,23.4,30.23,SE,138,2.0,8.0,57,0.00,,SKC,0.00,348.00,VWS V14.01,2013-02-25 16:39:00,
2013-02-25 11:40:00,37.2,23.4,30.23,ESE,110,4.0,8.0,57,0.00,,SKC,0.00,357.00,VWS V14.01,2013-02-25 16:40:00,
2013-02-25 11:43:00,37.1,24.1,30.23,SE,132,8.0,8.0,59,0.00,,SKC,0.00,353.00,VWS V14.01,2013-02-25 16:43:00,
2013-02-25 11:44:00,37.2,23.8,30.23,SSE,150,7.0,9.0,58,0.00,,SKC,0.00,357.00,VWS V14.01,2013-02-25 16:44:00,
2013-02-25 11:45:00,37.2,23.8,30.23,SE,139,6.0,9.0,58,0.00,,SKC,0.00,352.00,VWS V14.01,2013-02-25 16:45:00,
2013-02-25 11:48:00,37.1,23.3,30.23,ESE,122,5.0,9.0,57,0.00,,SKC,0.00,359.00,VWS V14.01,2013-02-25 16:48:00,
2013-02-25 11:49:00,37.0,23.6,30.23,ESE,123,3.0,9.0,58,0.00,,SKC,0.00,359.00,VWS V14.01,2013-02-25 16:49:00,
2013-02-25 11:50:00,37.1,24.1,30.23,ESE,117,7.0,9.0,59,0.00,,SKC,0.00,364.00,VWS V14.01,2013-02-25 16:50:00,
2013-02-25 11:53:00,37.1,23.7,30.23,SSE,159,3.0,9.0,58,0.00,,SKC,0.00,387.00,VWS V14.01,2013-02-25 16:53:00,
2013-02-25 11:54:00,37.1,23.7,30.23,SSE,161,1.0,9.0,58,0.00,,SKC,0.00,388.00,VWS V14.01,2013-02-25 16:54:00,
2013-02-25 11:55:00,37.1,23.3,30.23,SSE,160,0.0,9.0,57,0.00,,SKC,0.00,388.00,VWS V14.01,2013-02-25 16:55:00,
2013-02-25 11:56:00,37.1,23.7,30.23,SSE,159,0.0,9.0,58,0.00,,SKC,0.00,394.00,VWS V14.01,2013-02-25 16:56:00,
2013-02-25 11:58:00,37.5,24.1,30.23,SSE,168,1.0,9.0,58,0.00,,SKC,0.00,396.00,VWS V14.01,2013-02-25 16:58:00,
2013-02-25 11:59:00,37.5,23.7,30.23,SE,144,5.0,9.0,57,0.00,,SKC,0.00,401.00,VWS V14.01,2013-02-25 16:59:00,
2013-02-25 12:00:00,37.5,23.7,30.24,SE,125,6.0,9.0,57,0.00,,SKC,0.00,420.00,VWS V14.01,2013-02-25 17:00:00,
2013-02-25 12:01:00,37.6,23.8,30.24,SE,126,4.0,9.0,57,0.00,,SKC,0.00,420.00,VWS V14.01,2013-02-25 17:01:00,
2013-02-25 12:03:00,37.6,23.8,30.23,SE,141,0.0,3.0,57,0.00,,SKC,0.00,422.00,VWS V14.01,2013-02-25 17:03:00,
2013-02-25 12:04:00,37.7,23.9,30.23,SSW,205,3.0,4.0,57,0.00,,SKC,0.00,408.00,VWS V14.01,2013-02-25 17:04:00,
2013-02-25 12:05:00,37.7,23.9,30.23,South,179,1.0,4.0,57,0.00,,SKC,0.00,408.00,VWS V14.01,2013-02-25 17:05:00,
2013-02-25 12:06:00,37.7,23.4,30.23,SSE,164,2.0,4.0,56,0.00,,SKC,0.00,408.00,VWS V14.01,2013-02-25 17:06:00,
2013-02-25 12:08:00,37.7,23.9,30.23,SE,138,1.0,4.0,57,0.00,,SKC,0.00,401.00,VWS V14.01,2013-02-25 17:08:00,
2013-02-25 12:09:00,37.8,24.0,30.23,SE,137,5.0,6.0,57,0.00,,SKC,0.00,417.00,VWS V14.01,2013-02-25 17:09:00,
2013-02-25 12:10:00,37.9,24.0,30.23,SE,132,5.0,6.0,57,0.00,,SKC,0.00,390.00,VWS V14.01,2013-02-25 17:10:00,
2013-02-25 12:11:00,38.0,24.1,30.23,SE,136,5.0,6.0,57,0.00,,SKC,0.00,390.00,VWS V14.01,2013-02-25 17:11:00,
2013-02-25 12:14:00,38.0,23.7,30.23,SE,140,5.0,6.0,56,0.00,,SKC,0.00,425.00,VWS V14.01,2013-02-25 17:14:00,
2013-02-25 12:15:00,38.0,23.7,30.23,SE,138,6.0,6.0,56,0.00,,SKC,0.00,432.00,VWS V14.01,2013-02-25 17:15:00,
2013-02-25 12:16:00,38.0,23.7,30.23,SSE,148,2.0,6.0,56,0.00,,SKC,0.00,438.00,VWS V14.01,2013-02-25 17:16:00,
2013-02-25 12:19:00,37.7,23.9,30.22,South,174,4.0,6.0,57,0.00,,SKC,0.00,431.00,VWS V14.01,2013-02-25 17:19:00,
2013-02-25 12:20:00,37.6,23.3,30.22,South,188,1.0,6.0,56,0.00,,SKC,0.00,431.00,VWS V14.01,2013-02-25 17:20:00,
2013-02-25 12:21:00,37.4,23.1,30.22,SW,220,5.0,6.0,56,0.00,,SKC,0.00,448.00,VWS V14.01,2013-02-25 17:21:00,
2013-02-25 12:24:00,37.0,23.2,30.22,SE,125,0.0,6.0,57,0.00,,SKC,0.00,436.00,VWS V14.01,2013-02-25 17:24:00,
2013-02-25 12:25:00,37.1,23.3,30.22,ESE,123,3.0,6.0,57,0.00,,SKC,0.00,415.00,VWS V14.01,2013-02-25 17:25:00,
2013-02-25 12:26:00,37.3,23.5,30.22,ESE,105,3.0,6.0,57,0.00,,SKC,0.00,427.00,VWS V14.01,2013-02-25 17:26:00,
2013-02-25 12:29:00,38.2,23.9,30.22,East,88,5.0,6.0,56,0.00,,SKC,0.00,424.00,VWS V14.01,2013-02-25 17:29:00,
2013-02-25 12:30:00,38.4,23.7,30.22,East,88,0.0,6.0,55,0.00,,SKC,0.00,422.00,VWS V14.01,2013-02-25 17:30:00,
2013-02-25 12:31:00,38.4,23.7,30.22,East,94,0.0,6.0,55,0.00,,SKC,0.00,418.00,VWS V14.01,2013-02-25 17:31:00,
2013-02-25 12:34:00,38.1,23.4,30.22,SSE,163,0.0,4.0,55,0.00,,SKC,0.00,397.00,VWS V14.01,2013-02-25 17:34:00,
2013-02-25 12:35:00,38.2,23.5,30.22,ENE,78,3.0,4.0,55,0.00,,SKC,0.00,390.00,VWS V14.01,2013-02-25 17:35:00,
2013-02-25 12:36:00,38.3,23.6,30.22,ENE,78,2.0,4.0,55,0.00,,SKC,0.00,390.00,VWS V14.01,2013-02-25 17:36:00,
2013-02-25 12:39:00,38.9,24.1,30.21,ENE,66,2.0,4.0,55,0.00,,SKC,0.00,397.00,VWS V14.01,2013-02-25 17:39:00,
2013-02-25 12:40:00,39.1,23.9,30.21,East,98,3.0,4.0,54,0.00,,SKC,0.00,396.00,VWS V14.01,2013-02-25 17:40:00,
2013-02-25 12:41:00,39.1,23.9,30.21,East,99,7.0,7.0,54,0.00,,SKC,0.00,410.00,VWS V14.01,2013-02-25 17:41:00,
2013-02-25 12:45:00,39.1,23.9,30.21,SE,125,6.0,7.0,54,0.00,,SKC,0.00,394.00,VWS V14.01,2013-02-25 17:45:00,
2013-02-25 12:46:00,39.2,24.0,30.20,SE,136,6.0,7.0,54,0.00,,SKC,0.00,399.00,VWS V14.01,2013-02-25 17:46:00,
2013-02-25 12:50:00,39.1,23.9,30.20,SSE,159,6.0,7.0,54,0.00,,SKC,0.00,408.00,VWS V14.01,2013-02-25 17:50:00,
2013-02-25 12:51:00,39.0,23.8,30.20,SE,139,7.0,7.0,54,0.00,,SKC,0.00,413.00,VWS V14.01,2013-02-25 17:51:00,
2013-02-25 12:52:00,38.9,23.2,30.20,SE,145,4.0,7.0,53,0.00,,SKC,0.00,406.00,VWS V14.01,2013-02-25 17:52:00,
2013-02-25 12:55:00,38.3,23.1,30.20,SSW,212,7.0,7.0,54,0.00,,SKC,0.00,367.00,VWS V14.01,2013-02-25 17:55:00,
2013-02-25 12:56:00,37.9,22.8,30.20,SW,215,6.0,8.0,54,0.00,,SKC,0.00,352.00,VWS V14.01,2013-02-25 17:56:00,
2013-02-25 12:57:00,37.5,22.4,30.19,SW,215,3.0,8.0,54,0.00,,SKC,0.00,345.00,VWS V14.01,2013-02-25 17:57:00,
2013-02-25 13:00:00,37.3,23.1,30.19,SE,138,6.0,8.0,56,0.00,,SKC,0.00,330.00,VWS V14.01,2013-02-25 18:00:00,
2013-02-25 13:01:00,37.5,23.7,30.19,ENE,75,3.0,3.0,57,0.00,,SKC,0.00,329.00,VWS V14.01,2013-02-25 18:01:00,
2013-02-25 13:02:00,37.5,23.2,30.19,ESE,117,0.0,3.0,56,0.00,,SKC,0.00,329.00,VWS V14.01,2013-02-25 18:02:00,
2013-02-25 13:05:00,38.0,23.7,30.19,SSE,157,3.0,4.0,56,0.00,,SKC,0.00,327.00,VWS V14.01,2013-02-25 18:05:00,
2013-02-25 13:06:00,38.1,23.8,30.19,SSE,160,1.0,4.0,56,0.00,,SKC,0.00,332.00,VWS V14.01,2013-02-25 18:06:00,
2013-02-25 13:07:00,38.2,23.9,30.19,SSE,160,1.0,4.0,56,0.00,,SKC,0.00,339.00,VWS V14.01,2013-02-25 18:07:00,
2013-02-25 13:10:00,38.3,23.6,30.18,SSE,161,2.0,4.0,55,0.00,,SKC,0.00,373.00,VWS V14.01,2013-02-25 18:10:00,
2013-02-25 13:11:00,38.2,23.0,30.18,South,169,2.0,4.0,54,0.00,,SKC,0.00,394.00,VWS V14.01,2013-02-25 18:11:00,
2013-02-25 13:12:00,38.2,23.0,30.18,East,96,3.0,6.0,54,0.00,,SKC,0.00,410.00,VWS V14.01,2013-02-25 18:12:00,
2013-02-25 13:15:00,38.5,23.3,30.18,SE,125,0.0,6.0,54,0.00,,SKC,0.00,471.00,VWS V14.01,2013-02-25 18:15:00,
2013-02-25 13:16:00,38.6,23.4,30.18,ESE,115,3.0,6.0,54,0.00,,SKC,0.00,466.00,VWS V14.01,2013-02-25 18:16:00,
2013-02-25 13:17:00,38.7,23.5,30.18,ESE,117,5.0,6.0,54,0.00,,SKC,0.00,466.00,VWS V14.01,2013-02-25 18:17:00,
2013-02-25 13:20:00,39.5,24.2,30.18,ESE,105,3.0,6.0,54,0.00,,SKC,0.00,418.00,VWS V14.01,2013-02-25 18:20:00,
2013-02-25 13:21:00,39.5,23.8,30.18,ESE,119,0.0,6.0,53,0.00,,SKC,0.00,438.00,VWS V14.01,2013-02-25 18:21:00,
2013-02-25 13:22:00,39.5,23.4,30.18,ESE,119,0.0,6.0,52,0.00,,SKC,0.00,448.00,VWS V14.01,2013-02-25 18:22:00,
2013-02-25 13:25:00,39.2,23.1,30.18,SE,125,4.0,6.0,52,0.00,,SKC,0.00,490.00,VWS V14.01,2013-02-25 18:25:00,
2013-02-25 13:27:00,39.1,22.5,30.18,SE,125,1.0,6.0,51,0.00,,SKC,0.00,432.00,VWS V14.01,2013-02-25 18:27:00,
2013-02-25 13:30:00,38.6,23.0,30.17,SSW,194,3.0,7.0,53,0.00,,SKC,0.00,418.00,VWS V14.01,2013-02-25 18:30:00,
2013-02-25 13:32:00,38.3,22.7,30.17,SW,216,4.0,5.0,53,0.00,,SKC,0.00,425.00,VWS V14.01,2013-02-25 18:32:00,
2013-02-25 13:33:00,38.2,22.6,30.17,SW,216,1.0,5.0,53,0.00,,SKC,0.00,424.00,VWS V14.01,2013-02-25 18:33:00,
2013-02-25 13:35:00,38.3,23.1,30.17,SE,132,6.0,6.0,54,0.00,,SKC,0.00,468.00,VWS V14.01,2013-02-25 18:35:00,
2013-02-25 13:37:00,38.6,23.0,30.17,ESE,122,8.0,8.0,53,0.00,,SKC,0.00,427.00,VWS V14.01,2013-02-25 18:37:00,
2013-02-25 13:38:00,38.6,23.0,30.17,ESE,121,5.0,8.0,53,0.00,,SKC,0.00,427.00,VWS V14.01,2013-02-25 18:38:00,
2013-02-25 13:41:00,38.8,22.7,30.18,SE,128,3.0,8.0,52,0.00,,SKC,0.00,443.00,VWS V14.01,2013-02-25 18:41:00,
2013-02-25 13:43:00,38.8,22.7,30.17,SE,142,4.0,8.0,52,0.00,,SKC,0.00,411.00,VWS V14.01,2013-02-25 18:43:00,
2013-02-25 13:46:00,39.0,22.9,30.17,ESE,121,0.0,8.0,52,0.00,,SKC,0.00,362.00,VWS V14.01,2013-02-25 18:46:00,
2013-02-25 13:48:00,39.3,23.2,30.17,East,80,1.0,8.0,52,0.00,,SKC,0.00,355.00,VWS V14.01,2013-02-25 18:48:00,
2013-02-25 13:51:00,39.9,23.7,30.18,East,97,0.0,8.0,52,0.00,,SKC,0.00,378.00,VWS V14.01,2013-02-25 18:51:00,
2013-02-25 13:53:00,40.0,22.9,30.18,East,97,0.0,8.0,50,0.00,,SKC,0.00,387.00,VWS V14.01,2013-02-25 18:53:00,
2013-02-25 13:54:00,40.1,23.0,30.17,East,97,1.0,8.0,50,0.00,,SKC,0.00,387.00,VWS V14.01,2013-02-25 18:54:00,
2013-02-25 13:56:00,40.2,23.1,30.17,SE,133,3.0,8.0,50,0.00,,SKC,0.00,392.00,VWS V14.01,2013-02-25 18:56:00,
2013-02-25 13:58:00,40.1,23.0,30.17,South,180,1.0,8.0,50,0.00,,SKC,0.00,399.00,VWS V14.01,2013-02-25 18:58:00,
2013-02-25 13:59:00,40.1,23.4,30.17,SE,144,3.0,8.0,51,0.00,,SKC,0.00,399.00,VWS V14.01,2013-02-25 18:59:00,
2013-02-25 14:01:00,40.0,22.9,30.17,SSW,209,5.0,5.0,50,0.00,,SKC,0.00,378.00,VWS V14.01,2013-02-25 19:01:00,
2013-02-25 14:03:00,39.5,22.4,30.17,SW,216,4.0,5.0,50,0.00,,SKC,0.00,355.00,VWS V14.01,2013-02-25 19:03:00,
2013-02-25 14:04:00,39.3,22.7,30.17,SSW,205,2.0,6.0,51,0.00,,SKC,0.00,355.00,VWS V14.01,2013-02-25 19:04:00,
2013-02-25 14:07:00,39.3,23.2,30.17,SSE,157,3.0,6.0,52,0.00,,SKC,0.00,341.00,VWS V14.01,2013-02-25 19:07:00,
2013-02-25 14:08:00,39.4,22.8,30.17,SE,138,2.0,6.0,51,0.00,,SKC,0.00,343.00,VWS V14.01,2013-02-25 19:08:00,
2013-02-25 14:09:00,39.5,22.9,30.17,SE,138,3.0,6.0,51,0.00,,SKC,0.00,346.00,VWS V14.01,2013-02-25 19:09:00,
2013-02-25 14:12:00,39.8,23.2,30.17,SSE,156,3.0,6.0,51,0.00,,SKC,0.00,364.00,VWS V14.01,2013-02-25 19:12:00,
2013-02-25 14:13:00,40.0,23.4,30.17,East,100,5.0,6.0,51,0.00,,SKC,0.00,330.00,VWS V14.01,2013-02-25 19:13:00,
2013-02-25 14:14:00,40.0,23.4,30.17,East,100,3.0,6.0,51,0.00,,SKC,0.00,330.00,VWS V14.01,2013-02-25 19:14:00,
2013-02-25 14:17:00,40.2,23.1,30.17,ESE,102,0.0,6.0,50,0.00,,SKC,0.00,315.00,VWS V14.01,2013-02-25 19:17:00,
2013-02-25 14:18:00,40.3,23.1,30.17,ESE,102,0.0,6.0,50,0.00,,SKC,0.00,309.00,VWS V14.01,2013-02-25 19:18:00,
2013-02-25 14:19:00,40.3,23.1,30.17,ESE,102,0.0,6.0,50,0.00,,SKC,0.00,309.00,VWS V14.01,2013-02-25 19:19:00,
2013-02-25 14:22:00,40.4,23.2,30.17,ESE,104,1.0,6.0,50,0.00,,SKC,0.00,309.00,VWS V14.01,2013-02-25 19:22:00,
2013-02-25 14:24:00,40.3,23.1,30.16,ESE,104,1.0,6.0,50,0.00,,SKC,0.00,302.00,VWS V14.01,2013-02-25 19:24:00,
2013-02-25 14:25:00,40.4,23.2,30.16,ESE,109,2.0,6.0,50,0.00,,SKC,0.00,297.00,VWS V14.01,2013-02-25 19:25:00,
2013-02-25 14:27:00,40.4,23.2,30.16,SE,126,5.0,7.0,50,0.00,,SKC,0.00,272.00,VWS V14.01,2013-02-25 19:27:00,
2013-02-25 14:29:00,40.3,22.7,30.16,SE,126,5.0,7.0,49,0.00,,SKC,0.00,267.00,VWS V14.01,2013-02-25 19:29:00,
2013-02-25 14:30:00,40.3,22.7,30.17,ESE,115,3.0,7.0,49,0.00,,SKC,0.00,269.00,VWS V14.01,2013-02-25 19:30:00,
2013-02-25 14:32:00,40.2,23.1,30.17,SE,142,2.0,3.0,50,0.00,,SKC,0.00,264.00,VWS V14.01,2013-02-25 19:32:00,
2013-02-25 14:34:00,40.2,22.6,30.17,SE,137,5.0,6.0,49,0.00,,SKC,0.00,260.00,VWS V14.01,2013-02-25 19:34:00,
2013-02-25 14:35:00,40.1,23.0,30.17,ESE,120,2.0,6.0,50,0.00,,SKC,0.00,258.00,VWS V14.01,2013-02-25 19:35:00,
2013-02-25 14:37:00,40.1,23.0,30.17,ENE,72,5.0,6.0,50,0.00,,SKC,0.00,258.00,VWS V14.01,2013-02-25 19:37:00,
2013-02-25 14:39:00,40.0,22.4,30.17,East,87,2.0,6.0,49,0.00,,SKC,0.00,257.00,VWS V14.01,2013-02-25 19:39:00,
2013-02-25 14:40:00,40.0,22.4,30.17,ESE,107,0.0,6.0,49,0.00,,SKC,0.00,255.00,VWS V14.01,2013-02-25 19:40:00,
2013-02-25 14:42:00,40.0,22.9,30.18,ESE,107,0.0,6.0,50,0.00,,SKC,0.00,253.00,VWS V14.01,2013-02-25 19:42:00,
2013-02-25 14:44:00,40.2,23.1,30.18,ESE,107,0.0,6.0,50,0.00,,SKC,0.00,253.00,VWS V14.01,2013-02-25 19:44:00,
2013-02-25 14:45:00,40.2,23.1,30.18,East,96,0.0,6.0,50,0.00,,SKC,0.00,253.00,VWS V14.01,2013-02-25 19:45:00,
2013-02-25 14:47:00,40.3,23.1,30.18,SE,139,5.0,8.0,50,0.00,,SKC,0.00,257.00,VWS V14.01,2013-02-25 19:47:00,
2013-02-25 14:49:00,40.2,23.1,30.18,SE,129,3.0,8.0,50,0.00,,SKC,0.00,257.00,VWS V14.01,2013-02-25 19:49:00,
2013-02-25 14:50:00,40.2,23.1,30.18,SE,128,2.0,8.0,50,0.00,,SKC,0.00,257.00,VWS V14.01,2013-02-25 19:50:00,
2013-02-25 14:52:00,40.1,22.5,30.18,SSE,149,1.0,8.0,49,0.00,,SKC,0.00,255.00,VWS V14.01,2013-02-25 19:52:00,
2013-02-25 14:55:00,39.9,22.3,30.18,South,169,4.0,8.0,49,0.00,,SKC,0.00,264.00,VWS V14.01,2013-02-25 19:55:00,
2013-02-25 14:57:00,39.7,22.6,30.18,SSE,159,5.0,8.0,50,0.00,,SKC,0.00,274.00,VWS V14.01,2013-02-25 19:57:00,
2013-02-25 15:00:00,39.7,23.1,30.18,South,173,5.0,8.0,51,0.00,,SKC,0.00,276.00,VWS V14.01,2013-02-25 20:00:00,
2013-02-25 15:03:00,39.7,23.1,30.18,SSE,151,7.0,7.0,51,0.00,,SKC,0.00,292.00,VWS V14.01,2013-02-25 20:03:00,
2013-02-25 15:05:00,39.7,23.1,30.17,SE,133,5.0,7.0,51,0.00,,SKC,0.00,285.00,VWS V14.01,2013-02-25 20:05:00,
2013-02-25 15:06:00,39.7,23.1,30.17,SSE,162,1.0,7.0,51,0.00,,SKC,0.00,285.00,VWS V14.01,2013-02-25 20:06:00,
2013-02-25 15:08:00,39.9,23.7,30.17,ESE,123,4.0,7.0,52,0.00,,SKC,0.00,357.00,VWS V14.01,2013-02-25 20:08:00,
2013-02-25 15:10:00,40.0,23.8,30.17,SE,145,5.0,7.0,52,0.00,,SKC,0.00,265.00,VWS V14.01,2013-02-25 20:10:00,
2013-02-25 15:11:00,40.0,23.4,30.17,South,171,3.0,7.0,51,0.00,,SKC,0.00,292.00,VWS V14.01,2013-02-25 20:11:00,
2013-02-25 15:13:00,40.1,23.4,30.18,SE,132,4.0,7.0,51,0.00,,SKC,0.00,327.00,VWS V14.01,2013-02-25 20:13:00,
2013-02-25 15:15:00,40.1,23.0,30.18,ESE,121,2.0,7.0,50,0.00,,SKC,0.00,267.00,VWS V14.01,2013-02-25 20:15:00,
2013-02-25 15:16:00,40.1,23.0,30.18,ESE,119,4.0,7.0,50,0.00,,SKC,0.00,267.00,VWS V14.01,2013-02-25 20:16:00,
2013-02-25 15:18:00,40.3,23.6,30.18,SSE,155,2.0,8.0,51,0.00,,SKC,0.00,355.00,VWS V14.01,2013-02-25 20:18:00,
2013-02-25 15:20:00,40.4,23.7,30.18,SSE,162,4.0,8.0,51,0.00,,SKC,0.00,236.00,VWS V14.01,2013-02-25 20:20:00,
2013-02-25 15:21:00,40.4,23.2,30.18,SSE,153,3.0,8.0,50,0.00,,SKC,0.00,236.00,VWS V14.01,2013-02-25 20:21:00,
2013-02-25 15:24:00,40.2,23.1,30.18,SSW,205,2.0,8.0,50,0.00,,SKC,0.00,267.00,VWS V14.01,2013-02-25 20:24:00,
2013-02-25 15:25:00,40.2,23.1,30.18,SSW,205,0.0,8.0,50,0.00,,SKC,0.00,267.00,VWS V14.01,2013-02-25 20:25:00,
2013-02-25 15:26:00,40.2,23.1,30.18,SSW,205,1.0,8.0,50,0.00,,SKC,0.00,399.00,VWS V14.01,2013-02-25 20:26:00,
2013-02-25 15:29:00,40.4,23.7,30.18,SE,130,4.0,8.0,51,0.00,,SKC,0.00,374.00,VWS V14.01,2013-02-25 20:29:00,
2013-02-25 15:30:00,40.4,23.2,30.17,SSE,163,2.0,8.0,50,0.00,,SKC,0.00,334.00,VWS V14.01,2013-02-25 20:30:00,
2013-02-25 15:31:00,40.3,23.1,30.17,SSE,148,2.0,3.0,50,0.00,,SKC,0.00,334.00,VWS V14.01,2013-02-25 20:31:00,
2013-02-25 15:34:00,40.3,23.1,30.17,SSE,148,3.0,8.0,50,0.00,,SKC,0.00,220.00,VWS V14.01,2013-02-25 20:34:00,
2013-02-25 15:36:00,40.3,23.1,30.18,ESE,113,4.0,8.0,50,0.00,,SKC,0.00,369.00,VWS V14.01,2013-02-25 20:36:00,
2013-02-25 15:39:00,40.3,23.1,30.18,SE,131,4.0,8.0,50,0.00,,SKC,0.00,248.00,VWS V14.01,2013-02-25 20:39:00,
2013-02-25 15:41:00,40.3,23.1,30.18,SE,138,3.0,8.0,50,0.00,,SKC,0.00,478.00,VWS V14.01,2013-02-25 20:41:00,
2013-02-25 15:44:00,40.4,23.2,30.17,SE,133,2.0,8.0,50,0.00,,SKC,0.00,322.00,VWS V14.01,2013-02-25 20:44:00,
2013-02-25 15:46:00,40.5,23.3,30.17,SE,133,1.0,8.0,50,0.00,,SKC,0.00,214.00,VWS V14.01,2013-02-25 20:46:00,
2013-02-25 15:47:00,40.6,23.0,30.17,SE,133,3.0,8.0,49,0.00,,SKC,0.00,287.00,VWS V14.01,2013-02-25 20:47:00,
2013-02-25 15:49:00,40.5,22.9,30.17,South,188,2.0,8.0,49,0.00,,SKC,0.00,380.00,VWS V14.01,2013-02-25 20:49:00,
2013-02-25 15:51:00,40.6,23.4,30.17,SE,130,4.0,8.0,50,0.00,,SKC,0.00,339.00,VWS V14.01,2013-02-25 20:51:00,
2013-02-25 15:52:00,40.6,23.4,30.17,SE,130,2.0,8.0,50,0.00,,SKC,0.00,434.00,VWS V14.01,2013-02-25 20:52:00,
2013-02-25 15:54:00,40.7,23.5,30.17,SE,132,5.0,8.0,50,0.00,,SKC,0.00,388.00,VWS V14.01,2013-02-25 20:54:00,
2013-02-25 15:56:00,40.6,23.0,30.17,SSE,167,1.0,8.0,49,0.00,,SKC,0.00,385.00,VWS V14.01,2013-02-25 20:56:00,
2013-02-25 15:57:00,40.6,23.0,30.17,South,187,3.0,8.0,49,0.00,,SKC,0.00,290.00,VWS V14.01,2013-02-25 20:57:00,
2013-02-25 15:59:00,40.7,23.5,30.17,South,175,1.0,8.0,50,0.00,,SKC,0.00,301.00,VWS V14.01,2013-02-25 20:59:00,
2013-02-25 16:01:00,40.8,23.1,30.18,East,101,2.0,9.0,49,0.00,,SKC,0.00,306.00,VWS V14.01,2013-02-25 21:01:00,
2013-02-25 16:02:00,40.8,23.1,30.18,ESE,121,1.0,9.0,49,0.00,,SKC,0.00,311.00,VWS V14.01,2013-02-25 21:02:00,
2013-02-25 16:04:00,40.9,22.7,30.18,East,87,5.0,9.0,48,0.00,,SKC,0.00,265.00,VWS V14.01,2013-02-25 21:04:00,
2013-02-25 16:07:00,41.0,22.8,30.18,ENE,76,3.0,9.0,48,0.00,,SKC,0.00,301.00,VWS V14.01,2013-02-25 21:07:00,
2013-02-25 16:08:00,41.0,22.8,30.18,ENE,75,0.0,9.0,48,0.00,,SKC,0.00,301.00,VWS V14.01,2013-02-25 21:08:00,
2013-02-25 16:09:00,41.0,22.8,30.18,ENE,67,0.0,9.0,48,0.00,,SKC,0.00,171.00,VWS V14.01,2013-02-25 21:09:00,
2013-02-25 16:12:00,41.1,23.4,30.18,SE,126,4.0,9.0,49,0.00,,SKC,0.00,174.00,VWS V14.01,2013-02-25 21:12:00,
2013-02-25 16:13:00,41.1,22.9,30.18,ENE,78,4.0,9.0,48,0.00,,SKC,0.00,172.00,VWS V14.01,2013-02-25 21:13:00,
2013-02-25 16:14:00,40.9,22.7,30.17,ENE,71,2.0,9.0,48,0.00,,SKC,0.00,195.00,VWS V14.01,2013-02-25 21:14:00,
2013-02-25 16:17:00,40.8,22.6,30.17,ENE,74,0.0,9.0,48,0.00,,SKC,0.00,174.00,VWS V14.01,2013-02-25 21:17:00,
2013-02-25 16:18:00,40.8,22.6,30.17,ENE,74,1.0,9.0,48,0.00,,SKC,0.00,211.00,VWS V14.01,2013-02-25 21:18:00,
2013-02-25 16:20:00,40.9,23.2,30.17,East,94,3.0,9.0,49,0.00,,SKC,0.00,181.00,VWS V14.01,2013-02-25 21:20:00,
2013-02-25 16:22:00,40.9,22.7,30.17,ESE,105,3.0,9.0,48,0.00,,SKC,0.00,169.00,VWS V14.01,2013-02-25 21:22:00,
2013-02-25 16:23:00,40.9,22.7,30.17,East,92,5.0,9.0,48,0.00,,SKC,0.00,169.00,VWS V14.01,2013-02-25 21:23:00,
2013-02-25 16:24:00,40.8,22.6,30.17,East,84,2.0,9.0,48,0.00,,SKC,0.00,169.00,VWS V14.01,2013-02-25 21:24:00,
2013-02-25 16:25:00,40.8,22.6,30.17,SE,134,3.0,9.0,48,0.00,,SKC,0.00,236.00,VWS V14.01,2013-02-25 21:25:00,
2013-02-25 16:27:00,40.7,22.5,30.17,ESE,111,2.0,9.0,48,0.00,,SKC,0.00,179.00,VWS V14.01,2013-02-25 21:27:00,
2013-02-25 16:28:00,40.8,22.6,30.17,East,98,2.0,9.0,48,0.00,,SKC,0.00,160.00,VWS V14.01,2013-02-25 21:28:00,
2013-02-25 16:29:00,40.7,22.5,30.17,ESE,107,3.0,9.0,48,0.00,,SKC,0.00,225.00,VWS V14.01,2013-02-25 21:29:00,
2013-02-25 16:30:00,40.8,22.6,30.17,ESE,106,0.0,9.0,48,0.00,,SKC,0.00,244.00,VWS V14.01,2013-02-25 21:30:00,
2013-02-25 16:32:00,40.9,22.7,30.17,East,100,0.0,5.0,48,0.00,,SKC,0.00,209.00,VWS V14.01,2013-02-25 21:32:00,
2013-02-25 16:33:00,41.1,22.9,30.17,ESE,111,2.0,5.0,48,0.00,,SKC,0.00,197.00,VWS V14.01,2013-02-25 21:33:00,
2013-02-25 16:34:00,41.2,23.5,30.17,ESE,120,3.0,5.0,49,0.00,,SKC,0.00,186.00,VWS V14.01,2013-02-25 21:34:00,
2013-02-25 16:36:00,41.3,23.1,30.17,ESE,119,0.0,5.0,48,0.00,,SKC,0.00,186.00,VWS V14.01,2013-02-25 21:36:00,
2013-02-25 16:37:00,41.3,23.1,30.17,ESE,119,3.0,5.0,48,0.00,,SKC,0.00,156.00,VWS V14.01,2013-02-25 21:37:00,
2013-02-25 16:38:00,41.4,23.2,30.17,ESE,121,0.0,5.0,48,0.00,,SKC,0.00,153.00,VWS V14.01,2013-02-25 21:38:00,
2013-02-25 16:39:00,41.5,23.3,30.17,ESE,118,3.0,5.0,48,0.00,,SKC,0.00,163.00,VWS V14.01,2013-02-25 21:39:00,
2013-02-25 16:41:00,41.6,23.4,30.17,East,96,2.0,5.0,48,0.00,,SKC,0.00,135.00,VWS V14.01,2013-02-25 21:41:00,
2013-02-25 16:42:00,41.6,23.4,30.17,ESE,108,3.0,5.0,48,0.00,,SKC,0.00,169.00,VWS V14.01,2013-02-25 21:42:00,
2013-02-25 16:43:00,41.6,22.9,30.17,SSE,153,0.0,5.0,47,0.00,,SKC,0.00,186.00,VWS V14.01,2013-02-25 21:43:00,
2013-02-25 16:44:00,41.6,23.4,30.17,SSE,147,4.0,5.0,48,0.00,,SKC,0.00,206.00,VWS V14.01,2013-02-25 21:44:00,
2013-02-25 16:46:00,41.5,23.3,30.17,SE,134,6.0,7.0,48,0.00,,SKC,0.00,206.00,VWS V14.01,2013-02-25 21:46:00,
2013-02-25 16:47:00,41.4,23.2,30.17,SE,137,5.0,8.0,48,0.00,,SKC,0.00,185.00,VWS V14.01,2013-02-25 21:47:00,
2013-02-25 16:48:00,41.3,23.1,30.17,East,101,3.0,8.0,48,0.00,,SKC,0.00,178.00,VWS V14.01,2013-02-25 21:48:00,
2013-02-25 16:50:00,41.2,23.0,30.16,East,96,5.0,8.0,48,0.00,,SKC,0.00,160.00,VWS V14.01,2013-02-25 21:50:00,
2013-02-25 16:51:00,41.1,22.9,30.16,East,86,5.0,8.0,48,0.00,,SKC,0.00,155.00,VWS V14.01,2013-02-25 21:51:00,
2013-02-25 16:52:00,41.1,22.9,30.16,NE,53,2.0,9.0,48,0.00,,SKC,0.00,148.00,VWS V14.01,2013-02-25 21:52:00,
2013-02-25 16:54:00,41.0,22.8,30.16,ENE,69,3.0,9.0,48,0.00,,SKC,0.00,142.00,VWS V14.01,2013-02-25 21:54:00,
2013-02-25 16:55:00,41.0,22.8,30.16,East,86,0.0,9.0,48,0.00,,SKC,0.00,123.00,VWS V14.01,2013-02-25 21:55:00,
2013-02-25 16:56:00,41.0,23.3,30.16,East,86,0.0,9.0,49,0.00,,SKC,0.00,123.00,VWS V14.01,2013-02-25 21:56:00,
2013-02-25 16:58:00,41.1,23.4,30.16,ESE,113,2.0,9.0,49,0.00,,SKC,0.00,98.00,VWS V14.01,2013-02-25 21:58:00,
2013-02-25 16:59:00,41.1,22.9,30.16,NNE,33,2.0,9.0,48,0.00,,SKC,0.00,83.00,VWS V14.01,2013-02-25 21:59:00,
2013-02-25 17:00:00,41.1,22.9,30.16,NNE,33,1.0,9.0,48,0.00,,SKC,0.00,90.00,VWS V14.01,2013-02-25 22:00:00,
2013-02-25 17:01:00,41.1,22.9,30.16,East,98,5.0,5.0,48,0.00,,SKC,0.00,107.00,VWS V14.01,2013-02-25 22:01:00,
2013-02-25 17:03:00,41.1,22.9,30.16,SE,125,4.0,6.0,48,0.00,,SKC,0.00,132.00,VWS V14.01,2013-02-25 22:03:00,
2013-02-25 17:04:00,41.0,22.8,30.16,SE,142,1.0,6.0,48,0.00,,SKC,0.00,139.00,VWS V14.01,2013-02-25 22:04:00,
2013-02-25 17:06:00,41.0,22.8,30.16,SSE,157,1.0,6.0,48,0.00,,SKC,0.00,146.00,VWS V14.01,2013-02-25 22:06:00,
2013-02-25 17:08:00,41.0,23.3,30.16,SE,140,2.0,6.0,49,0.00,,SKC,0.00,102.00,VWS V14.01,2013-02-25 22:08:00,
2013-02-25 17:09:00,40.9,22.7,30.16,East,99,1.0,6.0,48,0.00,,SKC,0.00,113.00,VWS V14.01,2013-02-25 22:09:00,
2013-02-25 17:11:00,40.9,22.7,30.16,SE,144,2.0,6.0,48,0.00,,SKC,0.00,74.00,VWS V14.01,2013-02-25 22:11:00,
2013-02-25 17:12:00,40.8,22.6,30.16,SE,132,3.0,6.0,48,0.00,,SKC,0.00,74.00,VWS V14.01,2013-02-25 22:12:00,
2013-02-25 17:13:00,40.8,22.6,30.16,SE,130,4.0,6.0,48,0.00,,SKC,0.00,79.00,VWS V14.01,2013-02-25 22:13:00,
2013-02-25 17:15:00,40.7,22.5,30.16,SE,130,4.0,6.0,48,0.00,,SKC,0.00,63.00,VWS V14.01,2013-02-25 22:15:00,
2013-02-25 17:16:00,40.7,22.5,30.16,SE,130,3.0,6.0,48,0.00,,SKC,0.00,46.00,VWS V14.01,2013-02-25 22:16:00,
2013-02-25 17:17:00,40.6,22.5,30.16,SE,130,2.0,6.0,48,0.00,,SKC,0.00,46.00,VWS V14.01,2013-02-25 22:17:00,
2013-02-25 17:18:00,40.6,22.5,30.16,ESE,111,1.0,6.0,48,0.00,,SKC,0.00,39.00,VWS V14.01,2013-02-25 22:18:00,
2013-02-25 17:20:00,40.6,23.0,30.16,ESE,123,1.0,6.0,49,0.00,,SKC,0.00,69.00,VWS V14.01,2013-02-25 22:20:00,
2013-02-25 17:21:00,40.5,22.9,30.16,SE,146,0.0,6.0,49,0.00,,SKC,0.00,76.00,VWS V14.01,2013-02-25 22:21:00,
2013-02-25 17:22:00,40.5,22.9,30.16,SE,146,2.0,6.0,49,0.00,,SKC,0.00,76.00,VWS V14.01,2013-02-25 22:22:00,
2013-02-25 17:23:00,40.5,22.9,30.16,SE,130,5.0,6.0,49,0.00,,SKC,0.00,84.00,VWS V14.01,2013-02-25 22:23:00,
2013-02-25 17:25:00,40.4,22.8,30.16,ESE,119,7.0,7.0,49,0.00,,SKC,0.00,72.00,VWS V14.01,2013-02-25 22:25:00,
2013-02-25 17:26:00,40.3,22.2,30.16,SE,143,5.0,7.0,48,0.00,,SKC,0.00,49.00,VWS V14.01,2013-02-25 22:26:00,
2013-02-25 17:27:00,40.2,22.1,30.17,SE,127,5.0,7.0,48,0.00,,SKC,0.00,49.00,VWS V14.01,2013-02-25 22:27:00,
2013-02-25 17:28:00,40.2,22.6,30.17,SE,124,5.0,7.0,49,0.00,,SKC,0.00,32.00,VWS V14.01,2013-02-25 22:28:00,
2013-02-25 17:30:00,40.1,22.0,30.17,SE,144,5.0,8.0,48,0.00,,SKC,0.00,28.00,VWS V14.01,2013-02-25 22:30:00,
2013-02-25 17:32:00,40.1,22.5,30.17,ESE,119,5.0,7.0,49,0.00,,SKC,0.00,37.00,VWS V14.01,2013-02-25 22:32:00,
2013-02-25 17:33:00,40.0,22.4,30.17,ESE,117,3.0,7.0,49,0.00,,SKC,0.00,33.00,VWS V14.01,2013-02-25 22:33:00,
2013-02-25 17:35:00,40.0,22.4,30.17,ESE,119,3.0,7.0,49,0.00,,SKC,0.00,30.00,VWS V14.01,2013-02-25 22:35:00,
2013-02-25 17:37:00,39.9,22.3,30.17,SE,128,3.0,7.0,49,0.00,,SKC,0.00,26.00,VWS V14.01,2013-02-25 22:37:00,
2013-02-25 17:38:00,39.9,22.3,30.17,ESE,111,4.0,7.0,49,0.00,,SKC,0.00,25.00,VWS V14.01,2013-02-25 22:38:00,
2013-02-25 17:40:00,39.8,22.2,30.17,ESE,113,4.0,7.0,49,0.00,,SKC,0.00,23.00,VWS V14.01,2013-02-25 22:40:00,
2013-02-25 17:42:00,39.8,22.2,30.17,ESE,112,0.0,7.0,49,0.00,,SKC,0.00,21.00,VWS V14.01,2013-02-25 22:42:00,
2013-02-25 17:43:00,39.7,22.1,30.17,ESE,112,3.0,7.0,49,0.00,,SKC,0.00,23.00,VWS V14.01,2013-02-25 22:43:00,
2013-02-25 17:45:00,39.7,22.6,30.17,ESE,112,2.0,7.0,50,0.00,,SKC,0.00,26.00,VWS V14.01,2013-02-25 22:45:00,
2013-02-25 17:47:00,39.6,22.0,30.17,ESE,112,3.0,7.0,49,0.00,,SKC,0.00,30.00,VWS V14.01,2013-02-25 22:47:00,
2013-02-25 17:48:00,39.7,22.1,30.17,ESE,112,2.0,7.0,49,0.00,,SKC,0.00,30.00,VWS V14.01,2013-02-25 22:48:00,
2013-02-25 17:50:00,39.6,22.0,30.17,East,99,5.0,7.0,49,0.00,,SKC,0.00,23.00,VWS V14.01,2013-02-25 22:50:00,
2013-02-25 17:52:00,39.5,22.4,30.18,ESE,107,3.0,7.0,50,0.00,,SKC,0.00,19.00,VWS V14.01,2013-02-25 22:52:00,
2013-02-25 17:53:00,39.5,21.9,30.18,ESE,113,1.0,7.0,49,0.00,,SKC,0.00,19.00,VWS V14.01,2013-02-25 22:53:00,
2013-02-25 17:55:00,39.5,21.9,30.18,ESE,119,1.0,7.0,49,0.00,,SKC,0.00,14.00,VWS V14.01,2013-02-25 22:55:00,
2013-02-25 17:57:00,39.4,22.3,30.18,ESE,119,1.0,7.0,50,0.00,,SKC,0.00,12.00,VWS V14.01,2013-02-25 22:57:00,
2013-02-25 17:58:00,39.4,22.3,30.18,ESE,119,1.0,7.0,50,0.00,,SKC,0.00,12.00,VWS V14.01,2013-02-25 22:58:00,
2013-02-25 18:01:00,39.3,22.2,30.18,ESE,119,1.0,7.0,50,0.00,,SKC,0.00,11.00,VWS V14.01,2013-02-25 23:01:00,
2013-02-25 18:02:00,39.3,22.2,30.18,ESE,102,1.0,3.0,50,0.00,,SKC,0.00,9.00,VWS V14.01,2013-02-25 23:02:00,
2013-02-25 18:03:00,39.2,22.1,30.18,ESE,102,3.0,3.0,50,0.00,,SKC,0.00,9.00,VWS V14.01,2013-02-25 23:03:00,
2013-02-25 18:06:00,39.2,22.1,30.18,ESE,102,0.0,3.0,50,0.00,,SKC,0.00,7.00,VWS V14.01,2013-02-25 23:06:00,
2013-02-25 18:08:00,39.1,22.0,30.18,ESE,102,0.0,3.0,50,0.00,,SKC,0.00,5.00,VWS V14.01,2013-02-25 23:08:00,
2013-02-25 18:09:00,39.1,22.0,30.18,ESE,102,0.0,3.0,50,0.00,,SKC,0.00,5.00,VWS V14.01,2013-02-25 23:09:00,
2013-02-25 18:11:00,39.0,22.4,30.18,ESE,102,0.0,3.0,51,0.00,,SKC,0.00,0.00,VWS V14.01,2013-02-25 23:11:00,
2013-02-25 18:13:00,38.9,22.3,30.18,ESE,102,0.0,3.0,51,0.00,,SKC,0.00,0.00,VWS V14.01,2013-02-25 23:13:00,
2013-02-25 18:14:00,38.9,22.3,30.18,ESE,102,0.0,3.0,51,0.00,,SKC,0.00,0.00,VWS V14.01,2013-02-25 23:14:00,
2013-02-25 18:16:00,38.8,22.2,30.18,ESE,102,0.0,3.0,51,0.00,,SKC,0.00,0.00,VWS V14.01,2013-02-25 23:16:00,
2013-02-25 18:18:00,38.7,22.1,30.18,ESE,102,0.0,3.0,51,0.00,,SKC,0.00,0.00,VWS V14.01,2013-02-25 23:18:00,
2013-02-25 18:19:00,38.7,22.1,30.18,ESE,102,0.0,3.0,51,0.00,,SKC,0.00,0.00,VWS V14.01,2013-02-25 23:19:00,
2013-02-25 18:21:00,38.6,22.0,30.18,ESE,102,0.0,3.0,51,0.00,,SKC,0.00,0.00,VWS V14.01,2013-02-25 23:21:00,
2013-02-25 18:23:00,38.5,22.4,30.18,ESE,102,0.0,3.0,52,0.00,,SKC,0.00,0.00,VWS V14.01,2013-02-25 23:23:00,
2013-02-25 18:24:00,38.5,22.4,30.18,ESE,102,0.0,3.0,52,0.00,,SKC,0.00,0.00,VWS V14.01,2013-02-25 23:24:00,
2013-02-25 18:26:00,38.4,22.3,30.18,ESE,102,0.0,3.0,52,0.00,,SKC,0.00,0.00,VWS V14.01,2013-02-25 23:26:00,
2013-02-25 18:28:00,38.3,22.2,30.19,ESE,102,1.0,3.0,52,0.00,,SKC,0.00,0.00,VWS V14.01,2013-02-25 23:28:00,
2013-02-25 18:29:00,38.3,22.2,30.19,ESE,102,0.0,3.0,52,0.00,,SKC,0.00,0.00,VWS V14.01,2013-02-25 23:29:00,
2013-02-25 18:31:00,38.2,22.1,30.19,ESE,102,1.0,1.0,52,0.00,,SKC,0.00,0.00,VWS V14.01,2013-02-25 23:31:00,
2013-02-25 18:34:00,38.1,22.0,30.19,ESE,102,2.0,2.0,52,0.00,,SKC,0.00,0.00,VWS V14.01,2013-02-25 23:34:00,
2013-02-25 18:36:00,38.0,22.0,30.19,ESE,102,0.0,2.0,52,0.00,,SKC,0.00,0.00,VWS V14.01,2013-02-25 23:36:00,
2013-02-25 18:39:00,37.9,22.3,30.19,ESE,102,0.0,2.0,53,0.00,,SKC,0.00,0.00,VWS V14.01,2013-02-25 23:39:00,
2013-02-25 18:42:00,37.9,22.3,30.19,ESE,102,0.0,2.0,53,0.00,,SKC,0.00,0.00,VWS V14.01,2013-02-25 23:42:00,
2013-02-25 18:44:00,37.8,22.2,30.19,ESE,102,0.0,2.0,53,0.00,,SKC,0.00,0.00,VWS V14.01,2013-02-25 23:44:00,
2013-02-25 18:47:00,37.6,22.0,30.19,ESE,102,0.0,2.0,53,0.00,,SKC,0.00,0.00,VWS V14.01,2013-02-25 23:47:00,
2013-02-25 18:49:00,37.5,21.9,30.19,ESE,102,1.0,2.0,53,0.00,,SKC,0.00,0.00,VWS V14.01,2013-02-25 23:49:00,
2013-02-25 18:52:00,37.4,21.9,30.19,ESE,102,2.0,2.0,53,0.00,,SKC,0.00,0.00,VWS V14.01,2013-02-25 23:52:00,
2013-02-25 18:54:00,37.3,21.8,30.20,ESE,102,1.0,2.0,53,0.00,,SKC,0.00,0.00,VWS V14.01,2013-02-25 23:54:00,
2013-02-25 18:55:00,37.3,21.8,30.20,ESE,102,0.0,2.0,53,0.00,,SKC,0.00,0.00,VWS V14.01,2013-02-25 23:55:00,
2013-02-25 18:58:00,37.3,22.2,30.20,ESE,102,0.0,2.0,54,0.00,,SKC,0.00,0.00,VWS V14.01,2013-02-25 23:58:00,
2013-02-25 18:59:00,37.2,22.1,30.20,ESE,102,1.0,2.0,54,0.00,,SKC,0.00,0.00,VWS V14.01,2013-02-25 23:59:00,
2013-02-25 19:00:00,37.2,22.1,30.20,ESE,102,0.0,2.0,54,0.00,,SKC,0.00,0.00,VWS V14.01,2013-02-26 00:00:00,
2013-02-25 19:03:00,37.1,22.0,30.20,ESE,102,1.0,2.0,54,0.00,,SKC,0.00,0.00,VWS V14.01,2013-02-26 00:03:00,
2013-02-25 19:04:00,37.1,22.0,30.20,ESE,102,0.0,2.0,54,0.00,,SKC,0.00,0.00,VWS V14.01,2013-02-26 00:04:00,
2013-02-25 19:05:00,37.1,22.0,30.20,ESE,102,0.0,2.0,54,0.00,,SKC,0.00,0.00,VWS V14.01,2013-02-26 00:05:00,
2013-02-25 19:08:00,36.9,21.8,30.19,ESE,102,0.0,3.0,54,0.00,,SKC,0.00,0.00,VWS V14.01,2013-02-26 00:08:00,
2013-02-25 19:09:00,36.9,21.8,30.19,ESE,102,0.0,3.0,54,0.00,,SKC,0.00,0.00,VWS V14.01,2013-02-26 00:09:00,
2013-02-25 19:10:00,36.9,21.8,30.19,ESE,102,0.0,3.0,54,0.00,,SKC,0.00,0.00,VWS V14.01,2013-02-26 00:10:00,
2013-02-25 19:13:00,36.7,22.1,30.19,ESE,102,0.0,3.0,55,0.00,,SKC,0.00,0.00,VWS V14.01,2013-02-26 00:13:00,
2013-02-25 19:15:00,36.6,22.0,30.19,ESE,102,1.0,3.0,55,0.00,,SKC,0.00,0.00,VWS V14.01,2013-02-26 00:15:00,
2013-02-25 19:18:00,36.4,21.8,30.19,ESE,102,1.0,3.0,55,0.00,,SKC,0.00,0.00,VWS V14.01,2013-02-26 00:18:00,
2013-02-25 19:20:00,36.3,21.7,30.19,ESE,102,0.0,3.0,55,0.00,,SKC,0.00,0.00,VWS V14.01,2013-02-26 00:20:00,
2013-02-25 19:24:00,36.1,21.9,30.19,ESE,102,1.0,3.0,56,0.00,,SKC,0.00,0.00,VWS V14.01,2013-02-26 00:24:00,
2013-02-25 19:25:00,36.0,21.8,30.19,ESE,102,1.0,3.0,56,0.00,,SKC,0.00,0.00,VWS V14.01,2013-02-26 00:25:00,
2013-02-25 19:29:00,35.7,21.6,30.19,ESE,102,0.0,3.0,56,0.00,,SKC,0.00,0.00,VWS V14.01,2013-02-26 00:29:00,
2013-02-25 19:30:00,35.6,21.9,30.19,ESE,102,0.0,3.0,57,0.00,,SKC,0.00,0.00,VWS V14.01,2013-02-26 00:30:00,
2013-02-25 19:31:00,35.5,21.8,30.19,ESE,102,2.0,3.0,57,0.00,,SKC,0.00,0.00,VWS V14.01,2013-02-26 00:31:00,
2013-02-25 19:34:00,35.3,21.6,30.19,ESE,102,0.0,1.0,57,0.00,,SKC,0.00,0.00,VWS V14.01,2013-02-26 00:34:00,
2013-02-25 19:35:00,35.2,21.5,30.19,ESE,102,0.0,1.0,57,0.00,,SKC,0.00,0.00,VWS V14.01,2013-02-26 00:35:00,
2013-02-25 19:36:00,35.2,21.5,30.19,ESE,102,0.0,1.0,57,0.00,,SKC,0.00,0.00,VWS V14.01,2013-02-26 00:36:00,
2013-02-25 19:39:00,35.0,21.3,30.19,ESE,102,0.0,1.0,57,0.00,,SKC,0.00,0.00,VWS V14.01,2013-02-26 00:39:00,
2013-02-25 19:40:00,34.9,21.2,30.19,ESE,102,0.0,1.0,57,0.00,,SKC,0.00,0.00,VWS V14.01,2013-02-26 00:40:00,
2013-02-25 19:41:00,34.9,21.2,30.19,ESE,102,0.0,1.0,57,0.00,,SKC,0.00,0.00,VWS V14.01,2013-02-26 00:41:00,
2013-02-25 19:44:00,34.8,21.5,30.19,ESE,102,0.0,1.0,58,0.00,,SKC,0.00,0.00,VWS V14.01,2013-02-26 00:44:00,
2013-02-25 19:45:00,34.8,21.1,30.20,ESE,102,0.0,1.0,57,0.00,,SKC,0.00,0.00,VWS V14.01,2013-02-26 00:45:00,
2013-02-25 19:46:00,34.8,21.5,30.20,ESE,102,0.0,1.0,58,0.00,,SKC,0.00,0.00,VWS V14.01,2013-02-26 00:46:00,
2013-02-25 19:49:00,34.8,21.5,30.19,ESE,102,2.0,2.0,58,0.00,,SKC,0.00,0.00,VWS V14.01,2013-02-26 00:49:00,
2013-02-25 19:50:00,34.8,21.5,30.19,ESE,102,1.0,2.0,58,0.00,,SKC,0.00,0.00,VWS V14.01,2013-02-26 00:50:00,
2013-02-25 19:51:00,34.8,21.5,30.19,ESE,102,0.0,2.0,58,0.00,,SKC,0.00,0.00,VWS V14.01,2013-02-26 00:51:00,
2013-02-25 19:55:00,34.7,21.5,30.19,ESE,102,1.0,2.0,58,0.00,,SKC,0.00,0.00,VWS V14.01,2013-02-26 00:55:00,
2013-02-25 19:56:00,34.6,21.4,30.19,ESE,102,1.0,2.0,58,0.00,,SKC,0.00,0.00,VWS V14.01,2013-02-26 00:56:00,
2013-02-25 20:00:00,34.3,21.5,30.19,ESE,102,1.0,2.0,59,0.00,,SKC,0.00,0.00,VWS V14.01,2013-02-26 01:00:00,
2013-02-25 20:02:00,34.2,21.4,30.18,ESE,102,2.0,2.0,59,0.00,,SKC,0.00,0.00,VWS V14.01,2013-02-26 01:02:00,
2013-02-25 20:05:00,34.0,21.2,30.19,ESE,102,0.0,2.0,59,0.00,,SKC,0.00,0.00,VWS V14.01,2013-02-26 01:05:00,
2013-02-25 20:06:00,34.0,21.2,30.19,ESE,102,1.0,2.0,59,0.00,,SKC,0.00,0.00,VWS V14.01,2013-02-26 01:06:00,
2013-02-25 20:07:00,33.9,21.1,30.19,ESE,102,0.0,2.0,59,0.00,,SKC,0.00,0.00,VWS V14.01,2013-02-26 01:07:00,
2013-02-25 20:10:00,33.8,21.4,30.19,ESE,102,1.0,2.0,60,0.00,,SKC,0.00,0.00,VWS V14.01,2013-02-26 01:10:00,
2013-02-25 20:11:00,33.8,21.4,30.19,ESE,102,1.0,2.0,60,0.00,,SKC,0.00,0.00,VWS V14.01,2013-02-26 01:11:00,
2013-02-25 20:12:00,33.7,21.3,30.19,ESE,102,1.0,2.0,60,0.00,,SKC,0.00,0.00,VWS V14.01,2013-02-26 01:12:00,
2013-02-25 20:15:00,33.5,21.1,30.19,ESE,102,1.0,2.0,60,0.00,,SKC,0.00,0.00,VWS V14.01,2013-02-26 01:15:00,
2013-02-25 20:16:00,33.5,21.1,30.19,ESE,102,1.0,2.0,60,0.00,,SKC,0.00,0.00,VWS V14.01,2013-02-26 01:16:00,
2013-02-25 20:17:00,33.4,21.0,30.19,ESE,102,2.0,2.0,60,0.00,,SKC,0.00,0.00,VWS V14.01,2013-02-26 01:17:00,
2013-02-25 20:20:00,33.3,21.3,30.19,ESE,102,2.0,2.0,61,0.00,,SKC,0.00,0.00,VWS V14.01,2013-02-26 01:20:00,
2013-02-25 20:21:00,33.3,21.3,30.19,ESE,102,1.0,2.0,61,0.00,,SKC,0.00,0.00,VWS V14.01,2013-02-26 01:21:00,
2013-02-25 20:22:00,33.2,21.2,30.19,ESE,102,2.0,2.0,61,0.00,,SKC,0.00,0.00,VWS V14.01,2013-02-26 01:22:00,
2013-02-25 20:25:00,32.9,21.3,30.18,ESE,102,2.0,3.0,62,0.00,,SKC,0.00,0.00,VWS V14.01,2013-02-26 01:25:00,
2013-02-25 20:26:00,32.9,21.3,30.18,ESE,102,2.0,3.0,62,0.00,,SKC,0.00,0.00,VWS V14.01,2013-02-26 01:26:00,
2013-02-25 20:27:00,32.8,21.2,30.18,ESE,102,2.0,3.0,62,0.00,,SKC,0.00,0.00,VWS V14.01,2013-02-26 01:27:00,
2013-02-25 20:28:00,32.8,21.2,30.18,ESE,102,1.0,3.0,62,0.00,,SKC,0.00,0.00,VWS V14.01,2013-02-26 01:28:00,
2013-02-25 20:30:00,32.7,21.1,30.19,ESE,102,2.0,3.0,62,0.00,,SKC,0.00,0.00,VWS V14.01,2013-02-26 01:30:00,
2013-02-25 20:32:00,32.6,21.0,30.19,ESE,102,2.0,3.0,62,0.00,,SKC,0.00,0.00,VWS V14.01,2013-02-26 01:32:00,
2013-02-25 20:33:00,32.7,21.1,30.19,ESE,102,1.0,3.0,62,0.00,,SKC,0.00,0.00,VWS V14.01,2013-02-26 01:33:00,
2013-02-25 20:36:00,32.8,21.2,30.19,ESE,102,0.0,3.0,62,0.00,,SKC,0.00,0.00,VWS V14.01,2013-02-26 01:36:00,
2013-02-25 20:37:00,32.9,21.3,30.20,ESE,102,0.0,3.0,62,0.00,,SKC,0.00,0.00,VWS V14.01,2013-02-26 01:37:00,
2013-02-25 20:38:00,32.9,20.9,30.20,ESE,102,0.0,3.0,61,0.00,,SKC,0.00,0.00,VWS V14.01,2013-02-26 01:38:00,
2013-02-25 20:41:00,32.7,21.1,30.20,ESE,102,0.0,3.0,62,0.00,,SKC,0.00,0.00,VWS V14.01,2013-02-26 01:41:00,
2013-02-25 20:42:00,32.5,21.3,30.20,ESE,102,0.0,3.0,63,0.00,,SKC,0.00,0.00,VWS V14.01,2013-02-26 01:42:00,
2013-02-25 20:44:00,32.4,21.2,30.20,ESE,102,0.0,3.0,63,0.00,,SKC,0.00,0.00,VWS V14.01,2013-02-26 01:44:00,
2013-02-25 20:46:00,32.4,21.2,30.20,ESE,102,0.0,3.0,63,0.00,,SKC,0.00,0.00,VWS V14.01,2013-02-26 01:46:00,
2013-02-25 20:47:00,32.4,21.2,30.20,ESE,102,0.0,3.0,63,0.00,,SKC,0.00,0.00,VWS V14.01,2013-02-26 01:47:00,
2013-02-25 20:48:00,32.4,21.2,30.20,ESE,102,0.0,3.0,63,0.00,,SKC,0.00,0.00,VWS V14.01,2013-02-26 01:48:00,
2013-02-25 20:49:00,32.4,21.2,30.20,ESE,102,0.0,3.0,63,0.00,,SKC,0.00,0.00,VWS V14.01,2013-02-26 01:49:00,
2013-02-25 20:51:00,32.4,21.2,30.20,ESE,102,2.0,3.0,63,0.00,,SKC,0.00,0.00,VWS V14.01,2013-02-26 01:51:00,
2013-02-25 20:52:00,32.4,21.2,30.20,ESE,102,2.0,3.0,63,0.00,,SKC,0.00,0.00,VWS V14.01,2013-02-26 01:52:00,
2013-02-25 20:53:00,32.4,21.2,30.19,ESE,102,2.0,3.0,63,0.00,,SKC,0.00,0.00,VWS V14.01,2013-02-26 01:53:00,
2013-02-25 20:54:00,32.3,21.1,30.19,ESE,102,2.0,3.0,63,0.00,,SKC,0.00,0.00,VWS V14.01,2013-02-26 01:54:00,
2013-02-25 20:56:00,32.3,21.1,30.19,ESE,102,3.0,3.0,63,0.00,,SKC,0.00,0.00,VWS V14.01,2013-02-26 01:56:00,
2013-02-25 20:57:00,32.3,21.1,30.20,ESE,102,2.0,3.0,63,0.00,,SKC,0.00,0.00,VWS V14.01,2013-02-26 01:57:00,
2013-02-25 20:58:00,32.2,21.0,30.20,ESE,102,2.0,3.0,63,0.00,,SKC,0.00,0.00,VWS V14.01,2013-02-26 01:58:00,
2013-02-25 20:59:00,32.1,20.9,30.20,ESE,102,0.0,3.0,63,0.00,,SKC,0.00,0.00,VWS V14.01,2013-02-26 01:59:00,
2013-02-25 21:01:00,32.1,20.9,30.20,ESE,102,1.0,1.0,63,0.00,,SKC,0.00,0.00,VWS V14.01,2013-02-26 02:01:00,
2013-02-25 21:02:00,32.0,20.9,30.20,ESE,102,1.0,2.0,63,0.00,,SKC,0.00,0.00,VWS V14.01,2013-02-26 02:02:00,
2013-02-25 21:03:00,32.0,21.2,30.20,ESE,102,2.0,2.0,64,0.00,,SKC,0.00,0.00,VWS V14.01,2013-02-26 02:03:00,
2013-02-25 21:05:00,32.0,21.2,30.20,ESE,102,2.0,2.0,64,0.00,,SKC,0.00,0.00,VWS V14.01,2013-02-26 02:05:00,
2013-02-25 21:06:00,32.0,20.9,30.20,ESE,102,1.0,2.0,63,0.00,,SKC,0.00,0.00,VWS V14.01,2013-02-26 02:06:00,
2013-02-25 21:07:00,32.0,20.9,30.20,ESE,102,1.0,2.0,63,0.00,,SKC,0.00,0.00,VWS V14.01,2013-02-26 02:07:00,
2013-02-25 21:08:00,32.0,20.9,30.20,ESE,102,0.0,2.0,63,0.00,,SKC,0.00,0.00,VWS V14.01,2013-02-26 02:08:00,
2013-02-25 21:10:00,31.9,20.8,30.20,ESE,102,0.0,2.0,63,0.00,,SKC,0.00,0.00,VWS V14.01,2013-02-26 02:10:00,
2013-02-25 21:11:00,31.9,20.8,30.20,ESE,102,1.0,2.0,63,0.00,,SKC,0.00,0.00,VWS V14.01,2013-02-26 02:11:00,
2013-02-25 21:12:00,31.9,20.8,30.20,ESE,102,1.0,2.0,63,0.00,,SKC,0.00,0.00,VWS V14.01,2013-02-26 02:12:00,
2013-02-25 21:13:00,31.9,20.8,30.20,ESE,102,1.0,2.0,63,0.00,,SKC,0.00,0.00,VWS V14.01,2013-02-26 02:13:00,
2013-02-25 21:15:00,32.0,20.9,30.20,ESE,102,0.0,2.0,63,0.00,,SKC,0.00,0.00,VWS V14.01,2013-02-26 02:15:00,
2013-02-25 21:16:00,31.9,21.1,30.19,ESE,102,1.0,2.0,64,0.00,,SKC,0.00,0.00,VWS V14.01,2013-02-26 02:16:00,
2013-02-25 21:18:00,32.0,21.2,30.19,ESE,102,1.0,2.0,64,0.00,,SKC,0.00,0.00,VWS V14.01,2013-02-26 02:18:00,
2013-02-25 21:20:00,31.9,21.1,30.20,ESE,102,0.0,2.0,64,0.00,,SKC,0.00,0.00,VWS V14.01,2013-02-26 02:20:00,
2013-02-25 21:21:00,31.9,20.8,30.20,ESE,102,0.0,2.0,63,0.00,,SKC,0.00,0.00,VWS V14.01,2013-02-26 02:21:00,
2013-02-25 21:23:00,31.9,21.1,30.20,ESE,102,0.0,2.0,64,0.00,,SKC,0.00,0.00,VWS V14.01,2013-02-26 02:23:00,
2013-02-25 21:24:00,31.9,21.1,30.20,ESE,102,0.0,2.0,64,0.00,,SKC,0.00,0.00,VWS V14.01,2013-02-26 02:24:00,
2013-02-25 21:25:00,31.9,21.1,30.20,ESE,102,0.0,2.0,64,0.00,,SKC,0.00,0.00,VWS V14.01,2013-02-26 02:25:00,
2013-02-25 21:28:00,31.9,21.1,30.20,ESE,102,1.0,2.0,64,0.00,,SKC,0.00,0.00,VWS V14.01,2013-02-26 02:28:00,
2013-02-25 21:29:00,31.8,20.7,30.20,ESE,102,2.0,2.0,63,0.00,,SKC,0.00,0.00,VWS V14.01,2013-02-26 02:29:00,
2013-02-25 21:30:00,31.8,21.0,30.20,ESE,102,1.0,2.0,64,0.00,,SKC,0.00,0.00,VWS V14.01,2013-02-26 02:30:00,
2013-02-25 21:33:00,31.7,20.9,30.20,ESE,102,2.0,2.0,64,0.00,,SKC,0.00,0.00,VWS V14.01,2013-02-26 02:33:00,
2013-02-25 21:34:00,31.7,20.9,30.20,ESE,102,1.0,2.0,64,0.00,,SKC,0.00,0.00,VWS V14.01,2013-02-26 02:34:00,
2013-02-25 21:36:00,31.6,20.8,30.20,ESE,102,1.0,2.0,64,0.00,,SKC,0.00,0.00,VWS V14.01,2013-02-26 02:36:00,
2013-02-25 21:38:00,31.6,20.8,30.20,ESE,102,1.0,2.0,64,0.00,,SKC,0.00,0.00,VWS V14.01,2013-02-26 02:38:00,
2013-02-25 21:39:00,31.6,20.8,30.20,ESE,102,0.0,2.0,64,0.00,,SKC,0.00,0.00,VWS V14.01,2013-02-26 02:39:00,
2013-02-25 21:41:00,31.5,20.7,30.19,ESE,102,0.0,2.0,64,0.00,,SKC,0.00,0.00,VWS V14.01,2013-02-26 02:41:00,
2013-02-25 21:43:00,31.5,20.7,30.19,ESE,102,0.0,2.0,64,0.00,,SKC,0.00,0.00,VWS V14.01,2013-02-26 02:43:00,
2013-02-25 21:44:00,31.5,20.7,30.19,ESE,102,0.0,2.0,64,0.00,,SKC,0.00,0.00,VWS V14.01,2013-02-26 02:44:00,
2013-02-25 21:47:00,31.4,21.0,30.20,ESE,102,0.0,2.0,65,0.00,,SKC,0.00,0.00,VWS V14.01,2013-02-26 02:47:00,
2013-02-25 21:48:00,31.4,21.0,30.20,ESE,102,0.0,2.0,65,0.00,,SKC,0.00,0.00,VWS V14.01,2013-02-26 02:48:00,
2013-02-25 21:49:00,31.3,20.9,30.20,ESE,102,0.0,2.0,65,0.00,,SKC,0.00,0.00,VWS V14.01,2013-02-26 02:49:00,
2013-02-25 21:50:00,31.3,20.9,30.20,ESE,102,0.0,2.0,65,0.00,,SKC,0.00,0.00,VWS V14.01,2013-02-26 02:50:00,
2013-02-25 21:52:00,31.2,20.8,30.21,ESE,102,0.0,2.0,65,0.00,,SKC,0.00,0.00,VWS V14.01,2013-02-26 02:52:00,
2013-02-25 21:53:00,31.1,20.7,30.21,ESE,102,0.0,2.0,65,0.00,,SKC,0.00,0.00,VWS V14.01,2013-02-26 02:53:00,
2013-02-25 21:54:00,31.1,20.7,30.21,ESE,102,0.0,2.0,65,0.00,,SKC,0.00,0.00,VWS V14.01,2013-02-26 02:54:00,
2013-02-25 21:55:00,31.1,21.1,30.21,ESE,102,0.0,2.0,66,0.00,,SKC,0.00,0.00,VWS V14.01,2013-02-26 02:55:00,
2013-02-25 21:57:00,31.1,21.1,30.21,ESE,102,0.0,2.0,66,0.00,,SKC,0.00,0.00,VWS V14.01,2013-02-26 02:57:00,
2013-02-25 21:58:00,31.2,21.2,30.21,ESE,102,2.0,2.0,66,0.00,,SKC,0.00,0.00,VWS V14.01,2013-02-26 02:58:00,
2013-02-25 21:59:00,31.2,20.8,30.21,ESE,102,2.0,3.0,65,0.00,,SKC,0.00,0.00,VWS V14.01,2013-02-26 02:59:00,
2013-02-25 22:00:00,31.2,20.8,30.21,ESE,102,2.0,3.0,65,0.00,,SKC,0.00,0.00,VWS V14.01,2013-02-26 03:00:00,
2013-02-25 22:02:00,31.2,20.8,30.21,North,5,2.0,3.0,65,0.00,,SKC,0.00,0.00,VWS V14.01,2013-02-26 03:02:00,
2013-02-25 22:04:00,31.2,20.8,30.21,North,5,2.0,3.0,65,0.00,,SKC,0.00,0.00,VWS V14.01,2013-02-26 03:04:00,
2013-02-25 22:05:00,31.3,20.9,30.21,North,5,1.0,3.0,65,0.00,,SKC,0.00,0.00,VWS V14.01,2013-02-26 03:05:00,
2013-02-25 22:07:00,31.3,20.9,30.20,North,5,1.0,3.0,65,0.00,,SKC,0.00,0.00,VWS V14.01,2013-02-26 03:07:00,
2013-02-25 22:09:00,31.4,21.0,30.20,North,5,0.0,3.0,65,0.00,,SKC,0.00,0.00,VWS V14.01,2013-02-26 03:09:00,
2013-02-25 22:10:00,31.4,21.0,30.20,North,5,0.0,3.0,65,0.00,,SKC,0.00,0.00,VWS V14.01,2013-02-26 03:10:00,
2013-02-25 22:12:00,31.4,21.0,30.20,North,5,0.0,3.0,65,0.00,,SKC,0.00,0.00,VWS V14.01,2013-02-26 03:12:00,
2013-02-25 22:14:00,31.3,20.9,30.20,North,5,1.0,3.0,65,0.00,,SKC,0.00,0.00,VWS V14.01,2013-02-26 03:14:00,
2013-02-25 22:15:00,31.3,20.9,30.20,North,5,0.0,3.0,65,0.00,,SKC,0.00,0.00,VWS V14.01,2013-02-26 03:15:00,
2013-02-25 22:17:00,31.3,20.9,30.21,North,5,0.0,3.0,65,0.00,,SKC,0.00,0.00,VWS V14.01,2013-02-26 03:17:00,
2013-02-25 22:19:00,31.4,21.0,30.21,North,5,0.0,3.0,65,0.00,,SKC,0.00,0.00,VWS V14.01,2013-02-26 03:19:00,
2013-02-25 22:20:00,31.3,20.9,30.21,North,5,0.0,3.0,65,0.00,,SKC,0.00,0.00,VWS V14.01,2013-02-26 03:20:00,
2013-02-25 22:21:00,31.3,20.9,30.21,North,5,1.0,3.0,65,0.00,,SKC,0.00,0.00,VWS V14.01,2013-02-26 03:21:00,
2013-02-25 22:22:00,31.3,20.9,30.21,North,5,0.0,3.0,65,0.00,,SKC,0.00,0.00,VWS V14.01,2013-02-26 03:22:00,
2013-02-25 22:24:00,31.3,20.9,30.22,North,5,0.0,3.0,65,0.00,,SKC,0.00,0.00,VWS V14.01,2013-02-26 03:24:00,
2013-02-25 22:25:00,31.3,20.9,30.22,North,5,0.0,3.0,65,0.00,,SKC,0.00,0.00,VWS V14.01,2013-02-26 03:25:00,
2013-02-25 22:26:00,31.3,20.9,30.22,North,5,0.0,3.0,65,0.00,,SKC,0.00,0.00,VWS V14.01,2013-02-26 03:26:00,
2013-02-25 22:27:00,31.2,20.8,30.22,North,5,0.0,3.0,65,0.00,,SKC,0.00,0.00,VWS V14.01,2013-02-26 03:27:00,
2013-02-25 22:30:00,31.3,20.9,30.22,North,5,0.0,3.0,65,0.00,,SKC,0.00,0.00,VWS V14.01,2013-02-26 03:30:00,
2013-02-25 22:31:00,31.3,20.9,30.22,North,5,0.0,3.0,65,0.00,,SKC,0.00,0.00,VWS V14.01,2013-02-26 03:31:00,
2013-02-25 22:32:00,31.3,20.9,30.21,North,5,0.0,1.0,65,0.00,,SKC,0.00,0.00,VWS V14.01,2013-02-26 03:32:00,
2013-02-25 22:35:00,31.3,20.9,30.21,North,5,2.0,2.0,65,0.00,,SKC,0.00,0.00,VWS V14.01,2013-02-26 03:35:00,
2013-02-25 22:36:00,31.3,20.9,30.21,North,5,1.0,2.0,65,0.00,,SKC,0.00,0.00,VWS V14.01,2013-02-26 03:36:00,
2013-02-25 22:37:00,31.2,21.2,30.21,North,5,2.0,2.0,66,0.00,,SKC,0.00,0.00,VWS V14.01,2013-02-26 03:37:00,
2013-02-25 22:40:00,31.1,21.1,30.21,North,5,1.0,2.0,66,0.00,,SKC,0.00,0.00,VWS V14.01,2013-02-26 03:40:00,
2013-02-25 22:41:00,31.1,21.1,30.21,North,5,1.0,2.0,66,0.00,,SKC,0.00,0.00,VWS V14.01,2013-02-26 03:41:00,
2013-02-25 22:43:00,31.0,21.0,30.21,North,5,0.0,2.0,66,0.00,,SKC,0.00,0.00,VWS V14.01,2013-02-26 03:43:00,
2013-02-25 22:45:00,30.9,20.9,30.21,North,5,0.0,2.0,66,0.00,,SKC,0.00,0.00,VWS V14.01,2013-02-26 03:45:00,
2013-02-25 22:46:00,30.9,20.9,30.21,North,5,0.0,2.0,66,0.00,,SKC,0.00,0.00,VWS V14.01,2013-02-26 03:46:00,
2013-02-25 22:48:00,30.9,20.9,30.22,North,5,0.0,2.0,66,0.00,,SKC,0.00,0.00,VWS V14.01,2013-02-26 03:48:00,
2013-02-25 22:50:00,30.8,21.1,30.22,North,5,0.0,2.0,67,0.00,,SKC,0.00,0.00,VWS V14.01,2013-02-26 03:50:00,
2013-02-25 22:51:00,30.8,21.1,30.22,North,5,1.0,2.0,67,0.00,,SKC,0.00,0.00,VWS V14.01,2013-02-26 03:51:00,
2013-02-25 22:53:00,30.7,21.1,30.22,North,5,1.0,2.0,67,0.00,,SKC,0.00,0.00,VWS V14.01,2013-02-26 03:53:00,
2013-02-25 22:56:00,30.7,21.1,30.22,North,5,0.0,2.0,67,0.00,,SKC,0.00,0.00,VWS V14.01,2013-02-26 03:56:00,
2013-02-25 22:58:00,30.7,21.1,30.22,North,5,1.0,2.0,67,0.00,,SKC,0.00,0.00,VWS V14.01,2013-02-26 03:58:00,
2013-02-25 23:01:00,30.8,21.1,30.21,North,5,1.0,2.0,67,0.00,,SKC,0.00,0.00,VWS V14.01,2013-02-26 04:01:00,
2013-02-25 23:02:00,30.8,21.1,30.21,North,5,0.0,1.0,67,0.00,,SKC,0.00,0.00,VWS V14.01,2013-02-26 04:02:00,
2013-02-25 23:04:00,30.8,21.1,30.21,North,5,0.0,1.0,67,0.00,,SKC,0.00,0.00,VWS V14.01,2013-02-26 04:04:00,
2013-02-25 23:06:00,30.8,21.1,30.21,North,5,1.0,1.0,67,0.00,,SKC,0.00,0.00,VWS V14.01,2013-02-26 04:06:00,
2013-02-25 23:07:00,30.8,21.1,30.21,North,5,0.0,1.0,67,0.00,,SKC,0.00,0.00,VWS V14.01,2013-02-26 04:07:00,
2013-02-25 23:09:00,30.8,21.1,30.21,North,5,0.0,1.0,67,0.00,,SKC,0.00,0.00,VWS V14.01,2013-02-26 04:09:00,
2013-02-25 23:11:00,30.9,21.2,30.20,North,5,0.0,1.0,67,0.00,,SKC,0.00,0.00,VWS V14.01,2013-02-26 04:11:00,
2013-02-25 23:12:00,30.9,21.2,30.20,North,5,1.0,1.0,67,0.00,,SKC,0.00,0.00,VWS V14.01,2013-02-26 04:12:00,
2013-02-25 23:14:00,30.9,21.2,30.20,North,5,0.0,1.0,67,0.00,,SKC,0.00,0.00,VWS V14.01,2013-02-26 04:14:00,
2013-02-25 23:16:00,30.8,21.1,30.20,North,5,0.0,1.0,67,0.00,,SKC,0.00,0.00,VWS V14.01,2013-02-26 04:16:00,
2013-02-25 23:17:00,30.8,21.1,30.20,North,5,0.0,1.0,67,0.00,,SKC,0.00,0.00,VWS V14.01,2013-02-26 04:17:00,
2013-02-25 23:19:00,30.7,21.1,30.20,North,5,0.0,1.0,67,0.00,,SKC,0.00,0.00,VWS V14.01,2013-02-26 04:19:00,
2013-02-25 23:21:00,30.7,21.1,30.20,North,5,0.0,1.0,67,0.00,,SKC,0.00,0.00,VWS V14.01,2013-02-26 04:21:00,
2013-02-25 23:22:00,30.7,21.1,30.20,North,5,1.0,1.0,67,0.00,,SKC,0.00,0.00,VWS V14.01,2013-02-26 04:22:00,
2013-02-25 23:24:00,30.7,21.1,30.20,North,5,0.0,1.0,67,0.00,,SKC,0.00,0.00,VWS V14.01,2013-02-26 04:24:00,
2013-02-25 23:26:00,30.7,21.1,30.20,North,5,0.0,2.0,67,0.00,,SKC,0.00,0.00,VWS V14.01,2013-02-26 04:26:00,
2013-02-25 23:27:00,30.7,21.1,30.20,North,5,0.0,2.0,67,0.00,,SKC,0.00,0.00,VWS V14.01,2013-02-26 04:27:00,
2013-02-25 23:29:00,30.6,21.0,30.20,North,5,1.0,2.0,67,0.00,,SKC,0.00,0.00,VWS V14.01,2013-02-26 04:29:00,
2013-02-25 23:31:00,30.6,21.0,30.20,North,5,0.0,1.0,67,0.00,,SKC,0.00,0.00,VWS V14.01,2013-02-26 04:31:00,
2013-02-25 23:32:00,30.6,21.0,30.20,North,5,0.0,1.0,67,0.00,,SKC,0.00,0.00,VWS V14.01,2013-02-26 04:32:00,
2013-02-25 23:34:00,30.6,21.0,30.20,North,5,1.0,2.0,67,0.00,,SKC,0.00,0.00,VWS V14.01,2013-02-26 04:34:00,
2013-02-25 23:37:00,30.6,21.0,30.20,North,5,1.0,2.0,67,0.00,,SKC,0.00,0.00,VWS V14.01,2013-02-26 04:37:00,
2013-02-25 23:38:00,30.6,21.0,30.20,North,5,0.0,2.0,67,0.00,,SKC,0.00,0.00,VWS V14.01,2013-02-26 04:38:00,
2013-02-25 23:39:00,30.7,21.1,30.21,North,5,0.0,2.0,67,0.00,,SKC,0.00,0.00,VWS V14.01,2013-02-26 04:39:00,
2013-02-25 23:42:00,30.7,21.1,30.21,North,5,1.0,2.0,67,0.00,,SKC,0.00,0.00,VWS V14.01,2013-02-26 04:42:00,
2013-02-25 23:43:00,30.7,21.4,30.20,North,5,1.0,2.0,68,0.00,,SKC,0.00,0.00,VWS V14.01,2013-02-26 04:43:00,
2013-02-25 23:45:00,30.6,21.3,30.20,North,5,1.0,2.0,68,0.00,,SKC,0.00,0.00,VWS V14.01,2013-02-26 04:45:00,
2013-02-25 23:47:00,30.6,21.3,30.20,North,5,1.0,2.0,68,0.00,,SKC,0.00,0.00,VWS V14.01,2013-02-26 04:47:00,
2013-02-25 23:48:00,30.5,21.2,30.19,North,5,1.0,2.0,68,0.00,,SKC,0.00,0.00,VWS V14.01,2013-02-26 04:48:00,
2013-02-25 23:50:00,30.5,21.2,30.19,North,5,1.0,2.0,68,0.00,,SKC,0.00,0.00,VWS V14.01,2013-02-26 04:50:00,
2013-02-25 23:52:00,30.5,21.2,30.19,North,5,2.0,3.0,68,0.00,,SKC,0.00,0.00,VWS V14.01,2013-02-26 04:52:00,
2013-02-25 23:53:00,30.5,21.2,30.19,North,5,2.0,3.0,68,0.00,,SKC,0.00,0.00,VWS V14.01,2013-02-26 04:53:00,
2013-02-25 23:55:00,30.5,21.2,30.19,North,5,2.0,3.0,68,0.00,,SKC,0.00,0.00,VWS V14.01,2013-02-26 04:55:00,
2013-02-25 23:57:00,30.5,21.2,30.19,North,5,0.0,3.0,68,0.00,,SKC,0.00,0.00,VWS V14.01,2013-02-26 04:57:00,
2013-02-25 23:58:00,30.6,21.3,30.19,North,5,0.0,3.0,68,0.00,,SKC,0.00,0.00,VWS V14.01,2013-02-26 04:58:00,
2013-02-25 23:59:00,30.6,21.3,30.19,North,5,0.0,3.0,68,0.00,,SKC,0.00,0.00,VWS V14.01,2013-02-26 04:59:00,